Darstellungsparameter: Aktuell verwendete Einstellungen:
Skalierung der Graphiken ... ?
xyx+y,   Skalierungsfaktor:      Skalierung: Modus: x, Faktor: 1
Darstellungszeitraum ... ?
Vom - - bis: - -   Zeitraum: 24.10.2019 - 29.10.2019
Min/Max/Avg-Anzeige ... ?
Zeige MMA aktuell
Zeige MMA Monat
Zeige MMA alles
Zeige --A aktuell
Zeige --A Monat
Zeige --A alles
Keine MMA-Anzeige
MMA:
Average (ber die Originaldaten)
MMA-Basis: 24.10.2019 - 29.10.2019
Quicknavigation für Darstellung... ?
Tage:      1T, 2T, 3T, 5T -1T -2T -3T -5T +1T +2T +3T +5T
Wochen: 1W, 2W, 3W -1W -2W -3W +1W +2W +3W
Monate: 1M, 3M, 6M -1M -3M -6M +1M +3M +6M
Jahre:    1J, 3J, 5J, 10J -1J -3J -5J -10J +1J +3J +5J +10J
Nutze für die Darstellung ... ?
Originaldaten oder Mittelwerte auf ...
Stundenbasis Tagesbasis Wochenbasis
Monatsbasis Jahresbasis      Datenbasis: Original-Daten
Darstellen als:
Statistik (Auto) Statistik J:M      Darstellung:
Zur Graphik,    zurück zur Übersicht aller Sensoren.
 
Tabellarische Datenbersicht: ?
 
Sensor: Nr:Datum:Temp:Abs-Feuchte:Windchill:Wind:
Aussen-T/F 1 24-10-2019 00:00:00 12.6 C 10.51 g/m*3 12.6 C 0 km/h
2 24-10-2019 00:05:00 12.6 C 10.62 g/m*3 12.6 C 0 km/h
3 24-10-2019 00:10:00 12.6 C 10.62 g/m*3 12.6 C 0 km/h
4 24-10-2019 00:15:00 12.5 C 10.44 g/m*3 12.5 C 0 km/h
5 24-10-2019 00:20:00 12.4 C 10.38 g/m*3 12.4 C 0 km/h
6 24-10-2019 00:25:00 12.4 C 10.38 g/m*3 12.4 C 0 km/h
7 24-10-2019 00:30:00 12.4 C 10.38 g/m*3 12.4 C 0 km/h
8 24-10-2019 00:35:00 12.3 C 10.42 g/m*3 12.3 C 0 km/h
9 24-10-2019 00:40:00 12.3 C 10.42 g/m*3 12.3 C 0 km/h
10 24-10-2019 00:45:00 12.2 C 10.36 g/m*3 12.2 C 0 km/h
11 24-10-2019 00:50:00 12.2 C 10.36 g/m*3 12.2 C 0 km/h
12 24-10-2019 00:55:00 12.2 C 10.36 g/m*3 12.2 C 0 km/h
13 24-10-2019 01:00:00 12.2 C 10.36 g/m*3 12.2 C 0 km/h
14 24-10-2019 01:05:00 12.1 C 10.29 g/m*3 12.1 C 0 km/h
15 24-10-2019 01:10:00 12.1 C 10.29 g/m*3 12.1 C 0 km/h
16 24-10-2019 01:15:00 12.1 C 10.29 g/m*3 12.1 C 0 km/h
17 24-10-2019 01:20:00 12.1 C 10.29 g/m*3 12.1 C 0 km/h
18 24-10-2019 01:25:00 12.1 C 10.29 g/m*3 12.1 C 0 km/h
19 24-10-2019 01:30:00 12.1 C 10.29 g/m*3 12.1 C 1.6 km/h
20 24-10-2019 01:35:00 12.1 C 10.29 g/m*3 12.1 C 0 km/h
21 24-10-2019 01:40:00 12.2 C 10.36 g/m*3 12.2 C 6.4 km/h
22 24-10-2019 01:45:00 12.2 C 10.36 g/m*3 12.2 C 0 km/h
23 24-10-2019 01:50:00 12.3 C 10.42 g/m*3 12.3 C 0 km/h
24 24-10-2019 01:55:00 12.3 C 10.42 g/m*3 12.3 C 0 km/h
25 24-10-2019 02:00:00 12.3 C 10.42 g/m*3 12.3 C 0 km/h
Sensor: Nr:Datum:Temp:Abs-Feuchte:Windchill:Wind:
Aussen-T/F 26 24-10-2019 02:05:00 12.4 C 10.6 g/m*3 12.4 C 0 km/h
27 24-10-2019 02:10:00 12.4 C 10.6 g/m*3 12.4 C 0 km/h
28 24-10-2019 02:15:00 12.4 C 10.6 g/m*3 12.4 C 0 km/h
29 24-10-2019 02:20:00 12.4 C 10.6 g/m*3 12.4 C 0 km/h
30 24-10-2019 02:25:00 12.3 C 10.42 g/m*3 12.3 C 0 km/h
31 24-10-2019 02:30:00 12.2 C 10.36 g/m*3 12.2 C 0 km/h
32 24-10-2019 02:35:00 12.2 C 10.36 g/m*3 12.2 C 0 km/h
33 24-10-2019 02:40:00 12.2 C 10.36 g/m*3 12.2 C 0 km/h
34 24-10-2019 02:45:00 12.1 C 10.29 g/m*3 12.1 C 0 km/h
35 24-10-2019 02:50:00 12.1 C 10.29 g/m*3 12.1 C 0 km/h
36 24-10-2019 02:55:00 12.1 C 10.29 g/m*3 12.1 C 0 km/h
37 24-10-2019 03:00:00 12 C 10.23 g/m*3 12 C 0 km/h
38 24-10-2019 03:05:00 12 C 10.23 g/m*3 12 C 0 km/h
39 24-10-2019 03:10:00 11.9 C 10.17 g/m*3 11.9 C 0 km/h
40 24-10-2019 03:15:00 11.9 C 10.17 g/m*3 11.9 C 0 km/h
41 24-10-2019 03:20:00 11.9 C 10.17 g/m*3 11.9 C 0 km/h
42 24-10-2019 03:25:00 11.9 C 10.17 g/m*3 11.9 C 0 km/h
43 24-10-2019 03:30:00 11.8 C 10.1 g/m*3 11.8 C 0 km/h
44 24-10-2019 03:35:00 11.7 C 10.04 g/m*3 11.7 C 0 km/h
45 24-10-2019 03:40:00 11.7 C 10.04 g/m*3 11.7 C 0 km/h
46 24-10-2019 03:45:00 11.7 C 10.04 g/m*3 11.7 C 0 km/h
47 24-10-2019 03:50:00 11.7 C 10.04 g/m*3 11.7 C 0 km/h
48 24-10-2019 03:55:00 11.6 C 9.98 g/m*3 11.6 C 0 km/h
49 24-10-2019 04:00:00 11.6 C 9.98 g/m*3 11.6 C 0 km/h
50 24-10-2019 04:05:00 11.6 C 10.08 g/m*3 11.6 C 0 km/h
Sensor: Nr:Datum:Temp:Abs-Feuchte:Windchill:Wind:
Aussen-T/F 51 24-10-2019 04:10:00 11.6 C 10.08 g/m*3 11.6 C 0 km/h
52 24-10-2019 04:15:00 11.4 C 9.85 g/m*3 11.4 C 0 km/h
53 24-10-2019 04:20:00 11.4 C 9.96 g/m*3 11.4 C 0 km/h
54 24-10-2019 04:25:00 11.4 C 9.96 g/m*3 11.4 C 0 km/h
55 24-10-2019 04:30:00 11.6 C 10.08 g/m*3 11.6 C 0 km/h
56 24-10-2019 04:35:00 11.6 C 10.08 g/m*3 11.6 C 0 km/h
57 24-10-2019 04:40:00 11.7 C 10.15 g/m*3 11.7 C 0 km/h
58 24-10-2019 04:45:00 11.7 C 10.15 g/m*3 11.7 C 0 km/h
59 24-10-2019 04:50:00 11.7 C 10.15 g/m*3 11.7 C 0 km/h
60 24-10-2019 04:55:00 11.8 C 10.21 g/m*3 11.8 C 0 km/h
61 24-10-2019 05:00:00 11.7 C 10.15 g/m*3 11.7 C 0 km/h
62 24-10-2019 05:05:00 11.8 C 10.21 g/m*3 11.8 C 0 km/h
63 24-10-2019 05:10:00 11.8 C 10.21 g/m*3 11.8 C 0 km/h
64 24-10-2019 05:15:00 11.8 C 10.21 g/m*3 11.8 C 0 km/h
65 24-10-2019 05:20:00 11.8 C 10.21 g/m*3 11.8 C 0 km/h
66 24-10-2019 05:25:00 11.8 C 10.21 g/m*3 11.8 C 0 km/h
67 24-10-2019 05:30:00 11.8 C 10.21 g/m*3 11.8 C 1.6 km/h
68 24-10-2019 05:35:00 11.9 C 10.27 g/m*3 11.9 C 0 km/h
69 24-10-2019 05:40:00 11.9 C 10.27 g/m*3 11.9 C 0 km/h
70 24-10-2019 05:45:00 11.9 C 10.27 g/m*3 11.9 C 0 km/h
71 24-10-2019 05:50:00 12 C 10.34 g/m*3 12 C 0 km/h
72 24-10-2019 05:55:00 12 C 10.34 g/m*3 12 C 0 km/h
73 24-10-2019 06:00:00 11.9 C 10.27 g/m*3 11.9 C 0 km/h
74 24-10-2019 06:05:00 11.9 C 10.27 g/m*3 11.9 C 0 km/h
75 24-10-2019 06:10:00 11.8 C 10.21 g/m*3 11.8 C 0 km/h
Sensor: Nr:Datum:Temp:Abs-Feuchte:Windchill:Wind:
Aussen-T/F 76 24-10-2019 06:15:00 11.8 C 10.21 g/m*3 11.8 C 0 km/h
77 24-10-2019 06:20:00 11.7 C 10.15 g/m*3 11.7 C 0 km/h
78 24-10-2019 06:25:00 11.7 C 10.15 g/m*3 11.7 C 0 km/h
79 24-10-2019 06:30:00 11.7 C 10.15 g/m*3 11.7 C 0 km/h
80 24-10-2019 06:35:00 11.8 C 10.21 g/m*3 11.8 C 0 km/h
81 24-10-2019 06:40:00 11.9 C 10.27 g/m*3 11.9 C 0 km/h
82 24-10-2019 06:45:00 12.1 C 10.4 g/m*3 12.1 C 3.2 km/h
83 24-10-2019 06:50:00 12.2 C 10.47 g/m*3 12.2 C 0 km/h
84 24-10-2019 06:55:00 12.2 C 10.58 g/m*3 12.2 C 3.2 km/h
85 24-10-2019 07:00:00 12.3 C 10.64 g/m*3 12.3 C 1.6 km/h
86 24-10-2019 07:05:00 12.3 C 10.53 g/m*3 12.3 C 3.2 km/h
87 24-10-2019 07:10:00 12.3 C 10.53 g/m*3 12.3 C 0 km/h
88 24-10-2019 07:15:00 12.3 C 10.53 g/m*3 12.3 C 0 km/h
89 24-10-2019 07:20:00 12.3 C 10.53 g/m*3 12.3 C 0 km/h
90 24-10-2019 07:25:00 12.3 C 10.53 g/m*3 12.3 C 0 km/h
91 24-10-2019 07:30:00 12.3 C 10.53 g/m*3 12.3 C 0 km/h
92 24-10-2019 07:35:00 12.3 C 10.53 g/m*3 12.3 C 1.6 km/h
93 24-10-2019 07:40:00 12.4 C 10.6 g/m*3 12.4 C 0 km/h
94 24-10-2019 07:45:00 12.4 C 10.6 g/m*3 12.4 C 0 km/h
95 24-10-2019 07:50:00 12.4 C 10.6 g/m*3 12.4 C 1.6 km/h
96 24-10-2019 07:55:00 12.4 C 10.6 g/m*3 12.4 C 0 km/h
97 24-10-2019 08:00:00 12.4 C 10.6 g/m*3 12.4 C 0 km/h
98 24-10-2019 08:05:00 12.4 C 10.6 g/m*3 12.4 C 3.2 km/h
99 24-10-2019 08:10:00 12.4 C 10.6 g/m*3 12.4 C 1.6 km/h
100 24-10-2019 08:15:00 12.4 C 10.6 g/m*3 12.4 C 1.6 km/h
Sensor: Nr:Datum:Temp:Abs-Feuchte:Windchill:Wind:
Aussen-T/F 101 24-10-2019 08:20:00 12.4 C 10.6 g/m*3 12.4 C 0 km/h
102 24-10-2019 08:25:00 12.4 C 10.6 g/m*3 12.4 C 1.6 km/h
103 24-10-2019 08:30:00 12.5 C 10.66 g/m*3 12.5 C 0 km/h
104 24-10-2019 08:35:00 12.6 C 10.73 g/m*3 12.6 C 0 km/h
105 24-10-2019 08:40:00 12.6 C 10.73 g/m*3 12.6 C 0 km/h
106 24-10-2019 08:45:00 12.6 C 10.73 g/m*3 12.6 C 0 km/h
107 24-10-2019 08:50:00 12.6 C 10.73 g/m*3 12.6 C 0 km/h
108 24-10-2019 08:55:00 12.6 C 10.73 g/m*3 12.6 C 0 km/h
109 24-10-2019 09:00:00 12.7 C 10.8 g/m*3 12.7 C 0 km/h
110 24-10-2019 09:05:00 12.8 C 10.87 g/m*3 12.8 C 0 km/h
111 24-10-2019 09:10:00 12.9 C 10.93 g/m*3 12.9 C 0 km/h
112 24-10-2019 09:15:00 12.9 C 10.93 g/m*3 12.9 C 0 km/h
113 24-10-2019 09:20:00 13 C 11 g/m*3 13 C 0 km/h
114 24-10-2019 09:25:00 13 C 11 g/m*3 13 C 0 km/h
115 24-10-2019 09:30:00 13.1 C 11.07 g/m*3 13.1 C 0 km/h
116 24-10-2019 09:35:00 13.1 C 11.07 g/m*3 13.1 C 0 km/h
117 24-10-2019 09:40:00 13.1 C 11.07 g/m*3 13.1 C 0 km/h
118 24-10-2019 09:45:00 13.1 C 11.07 g/m*3 13.1 C 0 km/h
119 24-10-2019 09:50:00 13.2 C 11.14 g/m*3 13.2 C 0 km/h
120 24-10-2019 09:55:00 13.3 C 11.21 g/m*3 13.3 C 0 km/h
121 24-10-2019 10:00:00 13.3 C 11.21 g/m*3 13.3 C 0 km/h
122 24-10-2019 10:05:00 13.3 C 11.21 g/m*3 13.3 C 1.6 km/h
123 24-10-2019 10:10:00 13.4 C 11.28 g/m*3 13.4 C 0 km/h
124 24-10-2019 10:15:00 13.4 C 11.28 g/m*3 13.4 C 1.6 km/h
125 24-10-2019 10:20:00 13.5 C 11.35 g/m*3 13.5 C 0 km/h
Sensor: Nr:Datum:Temp:Abs-Feuchte:Windchill:Wind:
Aussen-T/F 126 24-10-2019 10:25:00 13.5 C 11.35 g/m*3 13.5 C 0 km/h
127 24-10-2019 10:30:00 13.6 C 11.42 g/m*3 13.6 C 0 km/h
128 24-10-2019 10:35:00 13.7 C 11.49 g/m*3 13.7 C 0 km/h
129 24-10-2019 10:40:00 13.8 C 11.56 g/m*3 13.8 C 0 km/h
130 24-10-2019 10:45:00 13.8 C 11.56 g/m*3 13.8 C 6.4 km/h
131 24-10-2019 10:50:00 13.8 C 11.44 g/m*3 13.8 C 1.6 km/h
132 24-10-2019 10:55:00 13.9 C 11.51 g/m*3 13.9 C 0 km/h
133 24-10-2019 11:00:00 14.1 C 11.65 g/m*3 14.1 C 0 km/h
134 24-10-2019 11:05:00 14.1 C 11.53 g/m*3 14.1 C 0 km/h
135 24-10-2019 11:10:00 14.2 C 11.6 g/m*3 14.2 C 0 km/h
136 24-10-2019 11:15:00 14.3 C 11.67 g/m*3 14.3 C 1.6 km/h
137 24-10-2019 11:20:00 14.4 C 11.62 g/m*3 14.4 C 0 km/h
138 24-10-2019 11:25:00 14.5 C 11.69 g/m*3 14.5 C 0 km/h
139 24-10-2019 11:30:00 14.6 C 11.64 g/m*3 14.6 C 1.6 km/h
140 24-10-2019 11:35:00 14.7 C 11.71 g/m*3 14.7 C 1.6 km/h
141 24-10-2019 11:40:00 14.8 C 11.65 g/m*3 14.8 C 1.6 km/h
142 24-10-2019 11:45:00 14.8 C 11.65 g/m*3 14.8 C 0 km/h
143 24-10-2019 11:50:00 14.8 C 11.65 g/m*3 14.8 C 0 km/h
144 24-10-2019 11:55:00 14.9 C 11.73 g/m*3 14.9 C 0 km/h
145 24-10-2019 12:00:00 14.9 C 11.73 g/m*3 14.9 C 0 km/h
146 24-10-2019 12:05:00 15 C 11.8 g/m*3 15 C 0 km/h
147 24-10-2019 12:10:00 15 C 11.8 g/m*3 15 C 0 km/h
148 24-10-2019 12:15:00 15 C 11.8 g/m*3 15 C 0 km/h
149 24-10-2019 12:20:00 15 C 11.8 g/m*3 15 C 0 km/h
150 24-10-2019 12:25:00 15.1 C 12 g/m*3 15.1 C 0 km/h
Sensor: Nr:Datum:Temp:Abs-Feuchte:Windchill:Wind:
Aussen-T/F 151 24-10-2019 12:30:00 15.1 C 12 g/m*3 15.1 C 0 km/h
152 24-10-2019 12:35:00 15.1 C 12 g/m*3 15.1 C 0 km/h
153 24-10-2019 12:40:00 15.2 C 12.07 g/m*3 15.2 C 0 km/h
154 24-10-2019 12:45:00 15.4 C 12.22 g/m*3 15.4 C 0 km/h
155 24-10-2019 12:50:00 15.6 C 12.37 g/m*3 15.6 C 0 km/h
156 24-10-2019 12:55:00 15.7 C 12.44 g/m*3 15.7 C 0 km/h
157 24-10-2019 13:00:00 15.9 C 12.59 g/m*3 15.9 C 0 km/h
158 24-10-2019 13:05:00 15.9 C 12.46 g/m*3 15.9 C 0 km/h
159 24-10-2019 13:10:00 16.2 C 12.69 g/m*3 16.2 C 0 km/h
160 24-10-2019 13:15:00 16.3 C 12.76 g/m*3 16.3 C 0 km/h
161 24-10-2019 13:20:00 16.4 C 12.7 g/m*3 16.4 C 0 km/h
162 24-10-2019 13:25:00 16.4 C 12.56 g/m*3 16.4 C 1.6 km/h
163 24-10-2019 13:30:00 16.4 C 12.56 g/m*3 16.4 C 0 km/h
164 24-10-2019 13:35:00 16.4 C 12.42 g/m*3 16.4 C 1.6 km/h
165 24-10-2019 13:40:00 16.6 C 12.43 g/m*3 16.6 C 8.1 km/h
166 24-10-2019 13:45:00 16.8 C 12.3 g/m*3 16.8 C 4.8 km/h
167 24-10-2019 13:50:00 17 C 12.59 g/m*3 17 C 3.2 km/h
168 24-10-2019 13:55:00 17.2 C 12.74 g/m*3 17.2 C 1.6 km/h
169 24-10-2019 14:00:00 17.3 C 12.67 g/m*3 17.3 C 1.6 km/h
170 24-10-2019 14:05:00 17.3 C 12.67 g/m*3 17.3 C 1.6 km/h
171 24-10-2019 14:10:00 17.3 C 12.82 g/m*3 17.3 C 0 km/h
172 24-10-2019 14:15:00 17.3 C 12.82 g/m*3 17.3 C 0 km/h
173 24-10-2019 14:20:00 17.3 C 12.96 g/m*3 17.3 C 0 km/h
174 24-10-2019 14:25:00 17.3 C 12.52 g/m*3 17.3 C 4.8 km/h
175 24-10-2019 14:30:00 17.4 C 13.04 g/m*3 17.4 C 0 km/h
Sensor: Nr:Datum:Temp:Abs-Feuchte:Windchill:Wind:
Aussen-T/F 176 24-10-2019 14:35:00 17.4 C 12.75 g/m*3 17.4 C 0 km/h
177 24-10-2019 14:40:00 17.6 C 13.05 g/m*3 17.6 C 0 km/h
178 24-10-2019 14:45:00 17.7 C 13.13 g/m*3 17.7 C 0 km/h
179 24-10-2019 14:50:00 17.8 C 13.36 g/m*3 17.8 C 0 km/h
180 24-10-2019 14:55:00 17.9 C 13.44 g/m*3 17.9 C 0 km/h
181 24-10-2019 15:00:00 18 C 13.36 g/m*3 18 C 0 km/h
182 24-10-2019 15:05:00 18.1 C 13.6 g/m*3 18.1 C 0 km/h
183 24-10-2019 15:10:00 18.2 C 13.37 g/m*3 18.2 C 0 km/h
184 24-10-2019 15:15:00 18.3 C 13.29 g/m*3 18.3 C 3.2 km/h
185 24-10-2019 15:20:00 18.4 C 13.05 g/m*3 18.4 C 1.6 km/h
186 24-10-2019 15:25:00 18.7 C 13.61 g/m*3 18.7 C 0 km/h
187 24-10-2019 15:30:00 18.8 C 13.69 g/m*3 18.8 C 0 km/h
188 24-10-2019 15:35:00 18.8 C 13.53 g/m*3 18.8 C 0 km/h
189 24-10-2019 15:40:00 18.9 C 13.61 g/m*3 18.9 C 0 km/h
190 24-10-2019 15:45:00 18.8 C 13.37 g/m*3 18.8 C 4.8 km/h
191 24-10-2019 15:50:00 18.7 C 12.97 g/m*3 18.7 C 1.6 km/h
192 24-10-2019 15:55:00 18.6 C 12.57 g/m*3 18.6 C 3.2 km/h
193 24-10-2019 16:00:00 18.4 C 12.58 g/m*3 18.4 C 1.6 km/h
194 24-10-2019 16:05:00 18.3 C 12.66 g/m*3 18.3 C 0 km/h
195 24-10-2019 16:10:00 18.1 C 12.52 g/m*3 18.1 C 0 km/h
196 24-10-2019 16:15:00 18 C 12.29 g/m*3 18 C 3.2 km/h
197 24-10-2019 16:20:00 18 C 12.75 g/m*3 18 C 1.6 km/h
198 24-10-2019 16:25:00 18.1 C 11.9 g/m*3 18.1 C 11.3 km/h
199 24-10-2019 16:30:00 18.4 C 12.11 g/m*3 18.4 C 4.8 km/h
200 24-10-2019 16:35:00 18.7 C 12.81 g/m*3 18.7 C 6.4 km/h
Sensor: Nr:Datum:Temp:Abs-Feuchte:Windchill:Wind:
Aussen-T/F 201 24-10-2019 16:40:00 18.8 C 12.4 g/m*3 18.8 C 9.7 km/h
202 24-10-2019 16:45:00 18.9 C 12.47 g/m*3 18.9 C 6.4 km/h
203 24-10-2019 16:50:00 18.9 C 12.64 g/m*3 18.9 C 0 km/h
204 24-10-2019 16:55:00 18.7 C 12.65 g/m*3 18.7 C 3.2 km/h
205 24-10-2019 17:00:00 18.5 C 12.82 g/m*3 18.5 C 0 km/h
206 24-10-2019 17:05:00 18.3 C 12.66 g/m*3 18.3 C 0 km/h
207 24-10-2019 17:10:00 18.1 C 12.52 g/m*3 18.1 C 0 km/h
208 24-10-2019 17:15:00 17.8 C 12.45 g/m*3 17.8 C 0 km/h
209 24-10-2019 17:20:00 17.8 C 12.45 g/m*3 17.8 C 0 km/h
210 24-10-2019 17:25:00 17.6 C 12.45 g/m*3 17.6 C 8.1 km/h
211 24-10-2019 17:30:00 17.4 C 12.15 g/m*3 17.4 C 9.7 km/h
212 24-10-2019 17:35:00 17.3 C 12.08 g/m*3 17.3 C 3.2 km/h
213 24-10-2019 17:40:00 17.1 C 11.79 g/m*3 17.1 C 3.2 km/h
214 24-10-2019 17:45:00 16.9 C 11.65 g/m*3 16.9 C 0 km/h
215 24-10-2019 17:50:00 16.8 C 11.72 g/m*3 16.8 C 1.6 km/h
216 24-10-2019 17:55:00 16.7 C 11.65 g/m*3 16.7 C 1.6 km/h
217 24-10-2019 18:00:00 16.6 C 11.72 g/m*3 16.6 C 0 km/h
218 24-10-2019 18:05:00 16.3 C 11.65 g/m*3 16.3 C 0 km/h
219 24-10-2019 18:10:00 16.2 C 11.58 g/m*3 16.2 C 1.6 km/h
220 24-10-2019 18:15:00 16 C 11.58 g/m*3 16 C 1.6 km/h
221 24-10-2019 18:20:00 15.8 C 11.44 g/m*3 15.8 C 3.2 km/h
222 24-10-2019 18:25:00 15.7 C 11.37 g/m*3 15.7 C 1.6 km/h
223 24-10-2019 18:30:00 15.5 C 11.24 g/m*3 15.5 C 1.6 km/h
224 24-10-2019 18:35:00 15.4 C 11.3 g/m*3 15.4 C 3.2 km/h
225 24-10-2019 18:40:00 15.3 C 11.23 g/m*3 15.3 C 1.6 km/h
Sensor: Nr:Datum:Temp:Abs-Feuchte:Windchill:Wind:
Aussen-T/F 226 24-10-2019 18:45:00 15.3 C 11.36 g/m*3 15.3 C 1.6 km/h
227 24-10-2019 18:50:00 15.2 C 11.29 g/m*3 15.2 C 3.2 km/h
228 24-10-2019 18:55:00 15.2 C 11.29 g/m*3 15.2 C 3.2 km/h
229 24-10-2019 19:00:00 15.1 C 11.22 g/m*3 15.1 C 1.6 km/h
230 24-10-2019 19:05:00 15.1 C 11.22 g/m*3 15.1 C 1.6 km/h
231 24-10-2019 19:10:00 14.9 C 11.09 g/m*3 14.9 C 1.6 km/h
232 24-10-2019 19:15:00 14.9 C 11.22 g/m*3 14.9 C 0 km/h
233 24-10-2019 19:20:00 14.8 C 11.15 g/m*3 14.8 C 0 km/h
234 24-10-2019 19:25:00 14.8 C 11.15 g/m*3 14.8 C 1.6 km/h
235 24-10-2019 19:30:00 14.7 C 11.21 g/m*3 14.7 C 1.6 km/h
236 24-10-2019 19:35:00 14.6 C 11.14 g/m*3 14.6 C 1.6 km/h
237 24-10-2019 19:40:00 14.5 C 11.07 g/m*3 14.5 C 1.6 km/h
238 24-10-2019 19:45:00 14.4 C 11 g/m*3 14.4 C 1.6 km/h
239 24-10-2019 19:50:00 14.3 C 10.93 g/m*3 14.3 C 0 km/h
240 24-10-2019 19:55:00 14.2 C 10.87 g/m*3 14.2 C 0 km/h
241 24-10-2019 20:00:00 14.2 C 10.87 g/m*3 14.2 C 1.6 km/h
242 24-10-2019 20:05:00 14.1 C 10.92 g/m*3 14.1 C 1.6 km/h
243 24-10-2019 20:10:00 14 C 10.86 g/m*3 14 C 0 km/h
244 24-10-2019 20:15:00 13.9 C 10.79 g/m*3 13.9 C 1.6 km/h
245 24-10-2019 20:20:00 13.9 C 10.79 g/m*3 13.9 C 1.6 km/h
246 24-10-2019 20:25:00 13.8 C 10.72 g/m*3 13.8 C 0 km/h
247 24-10-2019 20:30:00 13.8 C 10.84 g/m*3 13.8 C 0 km/h
248 24-10-2019 20:35:00 13.8 C 10.84 g/m*3 13.8 C 0 km/h
249 24-10-2019 20:40:00 13.7 C 10.78 g/m*3 13.7 C 1.6 km/h
250 24-10-2019 20:45:00 13.7 C 10.78 g/m*3 13.7 C 0 km/h
Sensor: Nr:Datum:Temp:Abs-Feuchte:Windchill:Wind:
Aussen-T/F 251 24-10-2019 20:50:00 13.7 C 10.78 g/m*3 13.7 C 0 km/h
252 24-10-2019 20:55:00 13.7 C 10.78 g/m*3 13.7 C 0 km/h
253 24-10-2019 21:00:00 13.7 C 10.78 g/m*3 13.7 C 0 km/h
254 24-10-2019 21:05:00 13.7 C 10.78 g/m*3 13.7 C 0 km/h
255 24-10-2019 21:10:00 13.7 C 10.78 g/m*3 13.7 C 1.6 km/h
256 24-10-2019 21:15:00 13.7 C 10.78 g/m*3 13.7 C 0 km/h
257 24-10-2019 21:20:00 13.7 C 10.78 g/m*3 13.7 C 0 km/h
258 24-10-2019 21:25:00 13.6 C 10.71 g/m*3 13.6 C 0 km/h
259 24-10-2019 21:30:00 13.5 C 10.64 g/m*3 13.5 C 0 km/h
260 24-10-2019 21:35:00 13.5 C 10.64 g/m*3 13.5 C 0 km/h
261 24-10-2019 21:40:00 13.4 C 10.58 g/m*3 13.4 C 0 km/h
262 24-10-2019 21:45:00 13.4 C 10.58 g/m*3 13.4 C 1.6 km/h
263 24-10-2019 21:50:00 13.3 C 10.51 g/m*3 13.3 C 0 km/h
264 24-10-2019 21:55:00 13.3 C 10.51 g/m*3 13.3 C 0 km/h
265 24-10-2019 22:00:00 13.2 C 10.56 g/m*3 13.2 C 0 km/h
266 24-10-2019 22:05:00 13.2 C 10.56 g/m*3 13.2 C 0 km/h
267 24-10-2019 22:10:00 13.2 C 10.56 g/m*3 13.2 C 0 km/h
268 24-10-2019 22:15:00 13.2 C 10.56 g/m*3 13.2 C 0 km/h
269 24-10-2019 22:20:00 13.1 C 10.5 g/m*3 13.1 C 0 km/h
270 24-10-2019 22:25:00 13.1 C 10.5 g/m*3 13.1 C 0 km/h
271 24-10-2019 22:30:00 13.1 C 10.5 g/m*3 13.1 C 0 km/h
272 24-10-2019 22:35:00 13 C 10.43 g/m*3 13 C 0 km/h
273 24-10-2019 22:40:00 12.9 C 10.48 g/m*3 12.9 C 0 km/h
274 24-10-2019 22:45:00 12.9 C 10.48 g/m*3 12.9 C 0 km/h
275 24-10-2019 22:50:00 13 C 10.55 g/m*3 13 C 0 km/h
Sensor: Nr:Datum:Temp:Abs-Feuchte:Windchill:Wind:
Aussen-T/F 276 24-10-2019 22:55:00 13 C 10.66 g/m*3 13 C 0 km/h
277 24-10-2019 23:00:00 13.1 C 10.73 g/m*3 13.1 C 0 km/h
278 24-10-2019 23:05:00 13.2 C 10.79 g/m*3 13.2 C 0 km/h
279 24-10-2019 23:10:00 13.2 C 10.79 g/m*3 13.2 C 0 km/h
280 24-10-2019 23:15:00 13.3 C 10.86 g/m*3 13.3 C 0 km/h
281 24-10-2019 23:20:00 13.3 C 10.86 g/m*3 13.3 C 0 km/h
282 24-10-2019 23:25:00 13.3 C 10.86 g/m*3 13.3 C 0 km/h
283 24-10-2019 23:30:00 13.3 C 10.86 g/m*3 13.3 C 0 km/h
284 24-10-2019 23:35:00 13.3 C 10.86 g/m*3 13.3 C 0 km/h
285 24-10-2019 23:40:00 13.2 C 10.68 g/m*3 13.2 C 0 km/h
286 24-10-2019 23:45:00 13.1 C 10.61 g/m*3 13.1 C 0 km/h
287 24-10-2019 23:50:00 13 C 10.55 g/m*3 13 C 0 km/h
288 24-10-2019 23:55:00 12.9 C 10.48 g/m*3 12.9 C 0 km/h
289 25-10-2019 00:00:00 12.8 C 10.42 g/m*3 12.8 C 0 km/h
290 25-10-2019 00:05:00 12.7 C 10.35 g/m*3 12.7 C 0 km/h
291 25-10-2019 00:10:00 12.6 C 10.29 g/m*3 12.6 C 0 km/h
292 25-10-2019 00:15:00 12.6 C 10.29 g/m*3 12.6 C 0 km/h
293 25-10-2019 00:20:00 12.5 C 10.22 g/m*3 12.5 C 0 km/h
294 25-10-2019 00:25:00 12.4 C 10.27 g/m*3 12.4 C 0 km/h
295 25-10-2019 00:30:00 12.3 C 10.21 g/m*3 12.3 C 0 km/h
296 25-10-2019 00:35:00 12.3 C 10.21 g/m*3 12.3 C 0 km/h
297 25-10-2019 00:40:00 12.2 C 10.14 g/m*3 12.2 C 0 km/h
298 25-10-2019 00:45:00 12.2 C 10.14 g/m*3 12.2 C 0 km/h
299 25-10-2019 00:50:00 12.2 C 10.14 g/m*3 12.2 C 0 km/h
300 25-10-2019 00:55:00 12.1 C 10.08 g/m*3 12.1 C 0 km/h
Sensor: Nr:Datum:Temp:Abs-Feuchte:Windchill:Wind:
Aussen-T/F 301 25-10-2019 01:00:00 12.1 C 10.19 g/m*3 12.1 C 0 km/h
302 25-10-2019 01:05:00 12.1 C 10.19 g/m*3 12.1 C 0 km/h
303 25-10-2019 01:10:00 12.1 C 10.19 g/m*3 12.1 C 0 km/h
304 25-10-2019 01:15:00 12.1 C 10.19 g/m*3 12.1 C 0 km/h
305 25-10-2019 01:20:00 12 C 10.12 g/m*3 12 C 0 km/h
306 25-10-2019 01:25:00 12 C 10.12 g/m*3 12 C 0 km/h
307 25-10-2019 01:30:00 11.9 C 10.06 g/m*3 11.9 C 0 km/h
308 25-10-2019 01:35:00 11.9 C 10.06 g/m*3 11.9 C 0 km/h
309 25-10-2019 01:40:00 11.9 C 10.06 g/m*3 11.9 C 0 km/h
310 25-10-2019 01:45:00 11.8 C 10 g/m*3 11.8 C 0 km/h
311 25-10-2019 01:50:00 11.8 C 10 g/m*3 11.8 C 0 km/h
312 25-10-2019 01:55:00 11.7 C 9.94 g/m*3 11.7 C 0 km/h
313 25-10-2019 02:00:00 11.6 C 9.87 g/m*3 11.6 C 0 km/h
314 25-10-2019 02:05:00 11.6 C 9.87 g/m*3 11.6 C 0 km/h
315 25-10-2019 02:10:00 11.5 C 9.81 g/m*3 11.5 C 0 km/h
316 25-10-2019 02:15:00 11.5 C 9.81 g/m*3 11.5 C 0 km/h
317 25-10-2019 02:20:00 11.5 C 9.81 g/m*3 11.5 C 0 km/h
318 25-10-2019 02:25:00 11.4 C 9.75 g/m*3 11.4 C 0 km/h
319 25-10-2019 02:30:00 11.4 C 9.75 g/m*3 11.4 C 0 km/h
320 25-10-2019 02:35:00 11.4 C 9.75 g/m*3 11.4 C 0 km/h
321 25-10-2019 02:40:00 11.3 C 9.69 g/m*3 11.3 C 3.2 km/h
322 25-10-2019 02:45:00 11.4 C 9.85 g/m*3 11.4 C 8.1 km/h
323 25-10-2019 02:50:00 11.6 C 9.98 g/m*3 11.6 C 1.6 km/h
324 25-10-2019 02:55:00 11.7 C 9.94 g/m*3 11.7 C 0 km/h
325 25-10-2019 03:00:00 11.7 C 9.94 g/m*3 11.7 C 6.4 km/h
Sensor: Nr:Datum:Temp:Abs-Feuchte:Windchill:Wind:
Aussen-T/F 326 25-10-2019 03:05:00 12 C 10.23 g/m*3 12 C 9.7 km/h
327 25-10-2019 03:10:00 12.2 C 10.25 g/m*3 12.2 C 0 km/h
328 25-10-2019 03:15:00 12.3 C 10.21 g/m*3 12.3 C 1.6 km/h
329 25-10-2019 03:20:00 12.3 C 10.21 g/m*3 12.3 C 0 km/h
330 25-10-2019 03:25:00 12.3 C 10.21 g/m*3 12.3 C 4.8 km/h
331 25-10-2019 03:30:00 12.4 C 10.16 g/m*3 12.4 C 0 km/h
332 25-10-2019 03:35:00 12.4 C 10.16 g/m*3 12.4 C 0 km/h
333 25-10-2019 03:40:00 12.4 C 10.16 g/m*3 12.4 C 0 km/h
334 25-10-2019 03:45:00 12.6 C 10.29 g/m*3 12.6 C 0 km/h
335 25-10-2019 03:50:00 12.7 C 10.35 g/m*3 12.7 C 0 km/h
336 25-10-2019 03:55:00 12.8 C 10.42 g/m*3 12.8 C 0 km/h
337 25-10-2019 04:00:00 12.9 C 10.48 g/m*3 12.9 C 0 km/h
338 25-10-2019 04:05:00 12.8 C 10.3 g/m*3 12.8 C 0 km/h
339 25-10-2019 04:10:00 12.8 C 10.3 g/m*3 12.8 C 0 km/h
340 25-10-2019 04:15:00 12.8 C 10.3 g/m*3 12.8 C 1.6 km/h
341 25-10-2019 04:20:00 12.8 C 10.3 g/m*3 12.8 C 0 km/h
342 25-10-2019 04:25:00 12.8 C 10.3 g/m*3 12.8 C 4.8 km/h
343 25-10-2019 04:30:00 12.8 C 10.3 g/m*3 12.8 C 1.6 km/h
344 25-10-2019 04:35:00 12.9 C 10.37 g/m*3 12.9 C 6.4 km/h
345 25-10-2019 04:40:00 13 C 10.43 g/m*3 13 C 3.2 km/h
346 25-10-2019 04:45:00 13.1 C 10.38 g/m*3 13.1 C 3.2 km/h
347 25-10-2019 04:50:00 13 C 10.21 g/m*3 13 C 0 km/h
348 25-10-2019 04:55:00 12.9 C 10.14 g/m*3 12.9 C 0 km/h
349 25-10-2019 05:00:00 12.8 C 10.08 g/m*3 12.8 C 0 km/h
350 25-10-2019 05:05:00 12.7 C 10.02 g/m*3 12.7 C 0 km/h
Sensor: Nr:Datum:Temp:Abs-Feuchte:Windchill:Wind:
Aussen-T/F 351 25-10-2019 05:10:00 12.6 C 10.07 g/m*3 12.6 C 1.6 km/h
352 25-10-2019 05:15:00 12.6 C 10.07 g/m*3 12.6 C 1.6 km/h
353 25-10-2019 05:20:00 12.6 C 10.07 g/m*3 12.6 C 1.6 km/h
354 25-10-2019 05:25:00 12.6 C 10.07 g/m*3 12.6 C 11.3 km/h
355 25-10-2019 05:30:00 12.7 C 10.13 g/m*3 12.7 C 11.3 km/h
356 25-10-2019 05:35:00 12.7 C 10.13 g/m*3 12.7 C 3.2 km/h
357 25-10-2019 05:40:00 12.7 C 10.13 g/m*3 12.7 C 1.6 km/h
358 25-10-2019 05:45:00 12.7 C 10.13 g/m*3 12.7 C 1.6 km/h
359 25-10-2019 05:50:00 12.6 C 10.07 g/m*3 12.6 C 1.6 km/h
360 25-10-2019 05:55:00 12.6 C 10.07 g/m*3 12.6 C 0 km/h
361 25-10-2019 06:00:00 12.6 C 10.07 g/m*3 12.6 C 0 km/h
362 25-10-2019 06:05:00 12.5 C 10 g/m*3 12.5 C 0 km/h
363 25-10-2019 06:10:00 12.4 C 9.94 g/m*3 12.4 C 1.6 km/h
364 25-10-2019 06:15:00 12.3 C 9.99 g/m*3 12.3 C 0 km/h
365 25-10-2019 06:20:00 12.4 C 10.05 g/m*3 12.4 C 1.6 km/h
366 25-10-2019 06:25:00 12.4 C 10.16 g/m*3 12.4 C 1.6 km/h
367 25-10-2019 06:30:00 12.5 C 10.22 g/m*3 12.5 C 1.6 km/h
368 25-10-2019 06:35:00 12.6 C 10.29 g/m*3 12.6 C 3.2 km/h
369 25-10-2019 06:40:00 12.8 C 10.3 g/m*3 12.8 C 6.4 km/h
370 25-10-2019 06:45:00 12.9 C 10.37 g/m*3 12.9 C 4.8 km/h
371 25-10-2019 06:50:00 13.1 C 10.5 g/m*3 13.1 C 1.6 km/h
372 25-10-2019 06:55:00 13.1 C 10.5 g/m*3 13.1 C 0 km/h
373 25-10-2019 07:00:00 13.2 C 10.45 g/m*3 13.2 C 6.4 km/h
374 25-10-2019 07:05:00 13.3 C 10.51 g/m*3 13.3 C 1.6 km/h
375 25-10-2019 07:10:00 13.3 C 10.51 g/m*3 13.3 C 3.2 km/h
Sensor: Nr:Datum:Temp:Abs-Feuchte:Windchill:Wind:
Aussen-T/F 376 25-10-2019 07:15:00 13.3 C 10.4 g/m*3 13.3 C 0 km/h
377 25-10-2019 07:20:00 13.2 C 10.33 g/m*3 13.2 C 0 km/h
378 25-10-2019 07:25:00 13.2 C 10.33 g/m*3 13.2 C 0 km/h
379 25-10-2019 07:30:00 13.1 C 10.27 g/m*3 13.1 C 1.6 km/h
380 25-10-2019 07:35:00 13.1 C 10.38 g/m*3 13.1 C 8.1 km/h
381 25-10-2019 07:40:00 13.1 C 10.38 g/m*3 13.1 C 6.4 km/h
382 25-10-2019 07:45:00 13.1 C 10.38 g/m*3 13.1 C 0 km/h
383 25-10-2019 07:50:00 13.1 C 10.38 g/m*3 13.1 C 0 km/h
384 25-10-2019 07:55:00 13.1 C 10.38 g/m*3 13.1 C 1.6 km/h
385 25-10-2019 08:00:00 13 C 10.32 g/m*3 13 C 1.6 km/h
386 25-10-2019 08:05:00 12.9 C 10.26 g/m*3 12.9 C 3.2 km/h
387 25-10-2019 08:10:00 12.8 C 10.19 g/m*3 12.8 C 6.4 km/h
388 25-10-2019 08:15:00 12.8 C 10.19 g/m*3 12.8 C 3.2 km/h
389 25-10-2019 08:20:00 12.8 C 10.19 g/m*3 12.8 C 0 km/h
390 25-10-2019 08:25:00 12.7 C 10.13 g/m*3 12.7 C 0 km/h
391 25-10-2019 08:30:00 12.6 C 10.18 g/m*3 12.6 C 1.6 km/h
392 25-10-2019 08:35:00 12.6 C 10.18 g/m*3 12.6 C 1.6 km/h
393 25-10-2019 08:40:00 12.5 C 10.11 g/m*3 12.5 C 0 km/h
394 25-10-2019 08:45:00 12.5 C 10.11 g/m*3 12.5 C 0 km/h
395 25-10-2019 08:50:00 12.5 C 10.22 g/m*3 12.5 C 0 km/h
396 25-10-2019 08:55:00 12.5 C 10.22 g/m*3 12.5 C 0 km/h
397 25-10-2019 09:00:00 12.6 C 10.29 g/m*3 12.6 C 0 km/h
398 25-10-2019 09:05:00 12.6 C 10.29 g/m*3 12.6 C 0 km/h
399 25-10-2019 09:10:00 12.6 C 10.29 g/m*3 12.6 C 0 km/h
400 25-10-2019 09:15:00 12.7 C 10.35 g/m*3 12.7 C 3.2 km/h
Sensor: Nr:Datum:Temp:Abs-Feuchte:Windchill:Wind:
Aussen-T/F 401 25-10-2019 09:20:00 12.8 C 10.53 g/m*3 12.8 C 0 km/h
402 25-10-2019 09:25:00 12.9 C 10.59 g/m*3 12.9 C 0 km/h
403 25-10-2019 09:30:00 12.9 C 10.59 g/m*3 12.9 C 0 km/h
404 25-10-2019 09:35:00 13.1 C 10.61 g/m*3 13.1 C 0 km/h
405 25-10-2019 09:40:00 13.1 C 10.61 g/m*3 13.1 C 6.4 km/h
406 25-10-2019 09:45:00 13.2 C 10.56 g/m*3 13.2 C 6.4 km/h
407 25-10-2019 09:50:00 13.3 C 10.63 g/m*3 13.3 C 4.8 km/h
408 25-10-2019 09:55:00 13.4 C 10.69 g/m*3 13.4 C 1.6 km/h
409 25-10-2019 10:00:00 13.4 C 10.69 g/m*3 13.4 C 1.6 km/h
410 25-10-2019 10:05:00 13.5 C 10.76 g/m*3 13.5 C 0 km/h
411 25-10-2019 10:10:00 13.5 C 10.76 g/m*3 13.5 C 3.2 km/h
412 25-10-2019 10:15:00 13.4 C 10.58 g/m*3 13.4 C 3.2 km/h
413 25-10-2019 10:20:00 13.5 C 10.53 g/m*3 13.5 C 6.4 km/h
414 25-10-2019 10:25:00 13.6 C 10.59 g/m*3 13.6 C 3.2 km/h
415 25-10-2019 10:30:00 13.7 C 10.54 g/m*3 13.7 C 6.4 km/h
416 25-10-2019 10:35:00 13.8 C 10.6 g/m*3 13.8 C 8.1 km/h
417 25-10-2019 10:40:00 13.9 C 10.55 g/m*3 13.9 C 9.7 km/h
418 25-10-2019 10:45:00 14.1 C 10.56 g/m*3 14.1 C 9.7 km/h
419 25-10-2019 10:50:00 14.3 C 10.44 g/m*3 14.3 C 12.9 km/h
420 25-10-2019 10:55:00 14.6 C 10.51 g/m*3 14.6 C 11.3 km/h
421 25-10-2019 11:00:00 14.7 C 10.58 g/m*3 14.7 C 11.3 km/h
422 25-10-2019 11:05:00 14.7 C 10.45 g/m*3 14.7 C 9.7 km/h
423 25-10-2019 11:10:00 14.8 C 10.51 g/m*3 14.8 C 8.1 km/h
424 25-10-2019 11:15:00 14.8 C 10.51 g/m*3 14.8 C 11.3 km/h
425 25-10-2019 11:20:00 14.9 C 10.58 g/m*3 14.9 C 8.1 km/h
Sensor: Nr:Datum:Temp:Abs-Feuchte:Windchill:Wind:
Aussen-T/F 426 25-10-2019 11:25:00 14.9 C 10.45 g/m*3 14.9 C 11.3 km/h
427 25-10-2019 11:30:00 14.9 C 10.45 g/m*3 14.9 C 11.3 km/h
428 25-10-2019 11:35:00 15 C 10.51 g/m*3 15 C 16.1 km/h
429 25-10-2019 11:40:00 15 C 10.51 g/m*3 15 C 6.4 km/h
430 25-10-2019 11:45:00 15 C 10.51 g/m*3 15 C 9.7 km/h
431 25-10-2019 11:50:00 15.1 C 10.58 g/m*3 15.1 C 6.4 km/h
432 25-10-2019 11:55:00 15.1 C 10.58 g/m*3 15.1 C 3.2 km/h
433 25-10-2019 12:00:00 15.1 C 10.45 g/m*3 15.1 C 8.1 km/h
434 25-10-2019 12:05:00 15 C 10.26 g/m*3 15 C 9.7 km/h
435 25-10-2019 12:10:00 15.1 C 10.45 g/m*3 15.1 C 9.7 km/h
436 25-10-2019 12:15:00 15.1 C 10.32 g/m*3 15.1 C 9.7 km/h
437 25-10-2019 12:20:00 15.2 C 10.38 g/m*3 15.2 C 12.9 km/h
438 25-10-2019 12:25:00 15.2 C 10.25 g/m*3 15.2 C 6.4 km/h
439 25-10-2019 12:30:00 15.2 C 10.25 g/m*3 15.2 C 12.9 km/h
440 25-10-2019 12:35:00 15.3 C 10.32 g/m*3 15.3 C 11.3 km/h
441 25-10-2019 12:40:00 15.4 C 10.25 g/m*3 15.4 C 12.9 km/h
442 25-10-2019 12:45:00 15.4 C 10.25 g/m*3 15.4 C 8.1 km/h
443 25-10-2019 12:50:00 15.6 C 10.51 g/m*3 15.6 C 9.7 km/h
444 25-10-2019 12:55:00 15.7 C 10.44 g/m*3 15.7 C 8.1 km/h
445 25-10-2019 13:00:00 15.7 C 10.17 g/m*3 15.7 C 8.1 km/h
446 25-10-2019 13:05:00 15.9 C 10.56 g/m*3 15.9 C 4.8 km/h
447 25-10-2019 13:10:00 16.1 C 10.28 g/m*3 16.1 C 9.7 km/h
448 25-10-2019 13:15:00 16.2 C 10.2 g/m*3 16.2 C 9.7 km/h
449 25-10-2019 13:20:00 16.2 C 10.34 g/m*3 16.2 C 9.7 km/h
450 25-10-2019 13:25:00 16.3 C 10.41 g/m*3 16.3 C 6.4 km/h
Sensor: Nr:Datum:Temp:Abs-Feuchte:Windchill:Wind:
Aussen-T/F 451 25-10-2019 13:30:00 16.4 C 10.19 g/m*3 16.4 C 8.1 km/h
452 25-10-2019 13:35:00 16.5 C 10.25 g/m*3 16.5 C 11.3 km/h
453 25-10-2019 13:40:00 16.4 C 9.77 g/m*3 16.4 C 16.1 km/h
454 25-10-2019 13:45:00 16.3 C 9.85 g/m*3 16.3 C 11.3 km/h
455 25-10-2019 13:50:00 16.2 C 9.93 g/m*3 16.2 C 6.4 km/h
456 25-10-2019 13:55:00 16.1 C 10.01 g/m*3 16.1 C 9.7 km/h
457 25-10-2019 14:00:00 16 C 9.95 g/m*3 16 C 8.1 km/h
458 25-10-2019 14:05:00 16 C 9.95 g/m*3 16 C 9.7 km/h
459 25-10-2019 14:10:00 16.1 C 10.01 g/m*3 16.1 C 11.3 km/h
460 25-10-2019 14:15:00 16.2 C 10.2 g/m*3 16.2 C 6.4 km/h
461 25-10-2019 14:20:00 16.2 C 10.34 g/m*3 16.2 C 8.1 km/h
462 25-10-2019 14:25:00 16.3 C 10.54 g/m*3 16.3 C 4.8 km/h
463 25-10-2019 14:30:00 16.3 C 10.41 g/m*3 16.3 C 4.8 km/h
464 25-10-2019 14:35:00 16.4 C 10.33 g/m*3 16.4 C 6.4 km/h
465 25-10-2019 14:40:00 16.5 C 10.39 g/m*3 16.5 C 8.1 km/h
466 25-10-2019 14:45:00 16.5 C 10.39 g/m*3 16.5 C 8.1 km/h
467 25-10-2019 14:50:00 16.5 C 10.25 g/m*3 16.5 C 11.3 km/h
468 25-10-2019 14:55:00 16.5 C 10.11 g/m*3 16.5 C 3.2 km/h
469 25-10-2019 15:00:00 16.5 C 10.11 g/m*3 16.5 C 6.4 km/h
470 25-10-2019 15:05:00 16.6 C 10.03 g/m*3 16.6 C 11.3 km/h
471 25-10-2019 15:10:00 16.6 C 10.03 g/m*3 16.6 C 11.3 km/h
472 25-10-2019 15:15:00 16.5 C 9.97 g/m*3 16.5 C 8.1 km/h
473 25-10-2019 15:20:00 16.4 C 9.77 g/m*3 16.4 C 9.7 km/h
474 25-10-2019 15:25:00 16.4 C 9.77 g/m*3 16.4 C 11.3 km/h
475 25-10-2019 15:30:00 16.4 C 9.77 g/m*3 16.4 C 9.7 km/h
Sensor: Nr:Datum:Temp:Abs-Feuchte:Windchill:Wind:
Aussen-T/F 476 25-10-2019 15:35:00 16.4 C 10.05 g/m*3 16.4 C 4.8 km/h
477 25-10-2019 15:40:00 16.4 C 9.77 g/m*3 16.4 C 8.1 km/h
478 25-10-2019 15:45:00 16.4 C 9.63 g/m*3 16.4 C 12.9 km/h
479 25-10-2019 15:50:00 16.3 C 9.71 g/m*3 16.3 C 8.1 km/h
480 25-10-2019 15:55:00 16.3 C 9.71 g/m*3 16.3 C 14.5 km/h
481 25-10-2019 16:00:00 16.3 C 9.71 g/m*3 16.3 C 6.4 km/h
482 25-10-2019 16:05:00 16.3 C 9.71 g/m*3 16.3 C 9.7 km/h
483 25-10-2019 16:10:00 16.3 C 10.13 g/m*3 16.3 C 8.1 km/h
484 25-10-2019 16:15:00 16.2 C 9.79 g/m*3 16.2 C 9.7 km/h
485 25-10-2019 16:20:00 16.2 C 10.2 g/m*3 16.2 C 8.1 km/h
486 25-10-2019 16:25:00 16.1 C 9.87 g/m*3 16.1 C 11.3 km/h
487 25-10-2019 16:30:00 16.1 C 10.14 g/m*3 16.1 C 4.8 km/h
488 25-10-2019 16:35:00 16.1 C 10.01 g/m*3 16.1 C 4.8 km/h
489 25-10-2019 16:40:00 15.9 C 10.16 g/m*3 15.9 C 6.4 km/h
490 25-10-2019 16:45:00 15.8 C 10.23 g/m*3 15.8 C 6.4 km/h
491 25-10-2019 16:50:00 15.7 C 9.9 g/m*3 15.7 C 3.2 km/h
492 25-10-2019 16:55:00 15.7 C 10.17 g/m*3 15.7 C 0 km/h
493 25-10-2019 17:00:00 15.5 C 10.31 g/m*3 15.5 C 0 km/h
494 25-10-2019 17:05:00 15.3 C 10.32 g/m*3 15.3 C 0 km/h
495 25-10-2019 17:10:00 15.1 C 10.32 g/m*3 15.1 C 0 km/h
496 25-10-2019 17:15:00 14.9 C 10.2 g/m*3 14.9 C 1.6 km/h
497 25-10-2019 17:20:00 14.7 C 10.2 g/m*3 14.7 C 0 km/h
498 25-10-2019 17:25:00 14.6 C 10.26 g/m*3 14.6 C 0 km/h
499 25-10-2019 17:30:00 14.4 C 10.14 g/m*3 14.4 C 3.2 km/h
500 25-10-2019 17:35:00 14.3 C 10.2 g/m*3 14.3 C 1.6 km/h
Sensor: Nr:Datum:Temp:Abs-Feuchte:Windchill:Wind:
Aussen-T/F 501 25-10-2019 17:40:00 14.2 C 10.14 g/m*3 14.2 C 0 km/h
502 25-10-2019 17:45:00 14.1 C 10.19 g/m*3 14.1 C 1.6 km/h
503 25-10-2019 17:50:00 13.9 C 10.07 g/m*3 13.9 C 0 km/h
504 25-10-2019 17:55:00 13.8 C 10.13 g/m*3 13.8 C 0 km/h
505 25-10-2019 18:00:00 13.7 C 10.07 g/m*3 13.7 C 0 km/h
506 25-10-2019 18:05:00 13.6 C 10 g/m*3 13.6 C 0 km/h
507 25-10-2019 18:10:00 13.4 C 10 g/m*3 13.4 C 0 km/h
508 25-10-2019 18:15:00 13.2 C 9.87 g/m*3 13.2 C 3.2 km/h
509 25-10-2019 18:20:00 13.1 C 9.81 g/m*3 13.1 C 1.6 km/h
510 25-10-2019 18:25:00 13 C 9.87 g/m*3 13 C 1.6 km/h
511 25-10-2019 18:30:00 12.9 C 9.81 g/m*3 12.9 C 1.6 km/h
512 25-10-2019 18:35:00 12.8 C 9.63 g/m*3 12.8 C 0 km/h
513 25-10-2019 18:40:00 12.7 C 9.68 g/m*3 12.7 C 0 km/h
514 25-10-2019 18:45:00 12.7 C 9.68 g/m*3 12.7 C 1.6 km/h
515 25-10-2019 18:50:00 12.6 C 9.62 g/m*3 12.6 C 0 km/h
516 25-10-2019 18:55:00 12.5 C 9.68 g/m*3 12.5 C 0 km/h
517 25-10-2019 19:00:00 12.4 C 9.62 g/m*3 12.4 C 0 km/h
518 25-10-2019 19:05:00 12.3 C 9.66 g/m*3 12.3 C 0 km/h
519 25-10-2019 19:10:00 12.2 C 9.6 g/m*3 12.2 C 0 km/h
520 25-10-2019 19:15:00 12.2 C 9.6 g/m*3 12.2 C 0 km/h
521 25-10-2019 19:20:00 12.1 C 9.65 g/m*3 12.1 C 0 km/h
522 25-10-2019 19:25:00 12 C 9.59 g/m*3 12 C 0 km/h
523 25-10-2019 19:30:00 11.9 C 9.53 g/m*3 11.9 C 0 km/h
524 25-10-2019 19:35:00 11.8 C 9.47 g/m*3 11.8 C 0 km/h
525 25-10-2019 19:40:00 11.8 C 9.58 g/m*3 11.8 C 1.6 km/h
Sensor: Nr:Datum:Temp:Abs-Feuchte:Windchill:Wind:
Aussen-T/F 526 25-10-2019 19:45:00 11.8 C 9.58 g/m*3 11.8 C 0 km/h
527 25-10-2019 19:50:00 11.7 C 9.52 g/m*3 11.7 C 0 km/h
528 25-10-2019 19:55:00 11.7 C 9.52 g/m*3 11.7 C 0 km/h
529 25-10-2019 20:00:00 11.6 C 9.46 g/m*3 11.6 C 0 km/h
530 25-10-2019 20:05:00 11.6 C 9.46 g/m*3 11.6 C 0 km/h
531 25-10-2019 20:10:00 11.6 C 9.56 g/m*3 11.6 C 0 km/h
532 25-10-2019 20:15:00 11.6 C 9.46 g/m*3 11.6 C 0 km/h
533 25-10-2019 20:20:00 11.6 C 9.46 g/m*3 11.6 C 0 km/h
534 25-10-2019 20:25:00 11.5 C 9.4 g/m*3 11.5 C 0 km/h
535 25-10-2019 20:30:00 11.4 C 9.34 g/m*3 11.4 C 0 km/h
536 25-10-2019 20:35:00 11.3 C 9.28 g/m*3 11.3 C 0 km/h
537 25-10-2019 20:40:00 11.3 C 9.28 g/m*3 11.3 C 0 km/h
538 25-10-2019 20:45:00 11.3 C 9.38 g/m*3 11.3 C 0 km/h
539 25-10-2019 20:50:00 11.3 C 9.38 g/m*3 11.3 C 0 km/h
540 25-10-2019 20:55:00 11.3 C 9.38 g/m*3 11.3 C 0 km/h
541 25-10-2019 21:00:00 11.3 C 9.38 g/m*3 11.3 C 0 km/h
542 25-10-2019 21:05:00 11.3 C 9.38 g/m*3 11.3 C 0 km/h
543 25-10-2019 21:10:00 11.2 C 9.33 g/m*3 11.2 C 0 km/h
544 25-10-2019 21:15:00 11.2 C 9.33 g/m*3 11.2 C 0 km/h
545 25-10-2019 21:20:00 11.1 C 9.27 g/m*3 11.1 C 0 km/h
546 25-10-2019 21:25:00 11.1 C 9.27 g/m*3 11.1 C 0 km/h
547 25-10-2019 21:30:00 10.9 C 9.15 g/m*3 10.9 C 0 km/h
548 25-10-2019 21:35:00 10.9 C 9.15 g/m*3 10.9 C 0 km/h
549 25-10-2019 21:40:00 10.9 C 9.25 g/m*3 10.9 C 0 km/h
550 25-10-2019 21:45:00 10.9 C 9.25 g/m*3 10.9 C 0 km/h
Sensor: Nr:Datum:Temp:Abs-Feuchte:Windchill:Wind:
Aussen-T/F 551 25-10-2019 21:50:00 10.8 C 9.19 g/m*3 10.8 C 0 km/h
552 25-10-2019 21:55:00 10.7 C 9.13 g/m*3 10.7 C 0 km/h
553 25-10-2019 22:00:00 10.8 C 9.29 g/m*3 10.8 C 0 km/h
554 25-10-2019 22:05:00 10.9 C 9.35 g/m*3 10.9 C 0 km/h
555 25-10-2019 22:10:00 11.1 C 9.47 g/m*3 11.1 C 1.6 km/h
556 25-10-2019 22:15:00 11.2 C 9.53 g/m*3 11.2 C 0 km/h
557 25-10-2019 22:20:00 11.3 C 9.59 g/m*3 11.3 C 0 km/h
558 25-10-2019 22:25:00 11.3 C 9.59 g/m*3 11.3 C 0 km/h
559 25-10-2019 22:30:00 11.3 C 9.59 g/m*3 11.3 C 1.6 km/h
560 25-10-2019 22:35:00 11.4 C 9.65 g/m*3 11.4 C 0 km/h
561 25-10-2019 22:40:00 11.4 C 9.65 g/m*3 11.4 C 0 km/h
562 25-10-2019 22:45:00 11.6 C 9.67 g/m*3 11.6 C 3.2 km/h
563 25-10-2019 22:50:00 11.6 C 9.67 g/m*3 11.6 C 0 km/h
564 25-10-2019 22:55:00 11.7 C 9.73 g/m*3 11.7 C 0 km/h
565 25-10-2019 23:00:00 11.8 C 9.79 g/m*3 11.8 C 0 km/h
566 25-10-2019 23:05:00 11.9 C 9.85 g/m*3 11.9 C 0 km/h
567 25-10-2019 23:10:00 12.1 C 9.97 g/m*3 12.1 C 3.2 km/h
568 25-10-2019 23:15:00 12.2 C 10.04 g/m*3 12.2 C 1.6 km/h
569 25-10-2019 23:20:00 12.3 C 10.1 g/m*3 12.3 C 0 km/h
570 25-10-2019 23:25:00 12.4 C 10.16 g/m*3 12.4 C 0 km/h
571 25-10-2019 23:30:00 12.6 C 10.29 g/m*3 12.6 C 4.8 km/h
572 25-10-2019 23:35:00 12.7 C 10.24 g/m*3 12.7 C 0 km/h
573 25-10-2019 23:40:00 12.8 C 10.19 g/m*3 12.8 C 0 km/h
574 25-10-2019 23:45:00 12.8 C 10.19 g/m*3 12.8 C 6.4 km/h
575 25-10-2019 23:50:00 12.9 C 10.26 g/m*3 12.9 C 1.6 km/h
Sensor: Nr:Datum:Temp:Abs-Feuchte:Windchill:Wind:
Aussen-T/F 576 25-10-2019 23:55:00 13.1 C 10.38 g/m*3 13.1 C 1.6 km/h
577 26-10-2019 00:00:00 13.1 C 10.27 g/m*3 13.1 C 0 km/h
578 26-10-2019 00:05:00 13.2 C 10.45 g/m*3 13.2 C 1.6 km/h
579 26-10-2019 00:10:00 13.2 C 10.33 g/m*3 13.2 C 0 km/h
580 26-10-2019 00:15:00 13.3 C 10.4 g/m*3 13.3 C 1.6 km/h
581 26-10-2019 00:20:00 13.4 C 10.46 g/m*3 13.4 C 3.2 km/h
582 26-10-2019 00:25:00 13.5 C 10.41 g/m*3 13.5 C 3.2 km/h
583 26-10-2019 00:30:00 13.6 C 10.47 g/m*3 13.6 C 3.2 km/h
584 26-10-2019 00:35:00 13.7 C 10.42 g/m*3 13.7 C 1.6 km/h
585 26-10-2019 00:40:00 13.7 C 10.54 g/m*3 13.7 C 0 km/h
586 26-10-2019 00:45:00 13.7 C 10.42 g/m*3 13.7 C 3.2 km/h
587 26-10-2019 00:50:00 13.7 C 10.42 g/m*3 13.7 C 0 km/h
588 26-10-2019 00:55:00 13.7 C 10.42 g/m*3 13.7 C 0 km/h
589 26-10-2019 01:00:00 13.7 C 10.42 g/m*3 13.7 C 3.2 km/h
590 26-10-2019 01:05:00 13.7 C 10.42 g/m*3 13.7 C 1.6 km/h
591 26-10-2019 01:10:00 13.6 C 10.36 g/m*3 13.6 C 0 km/h
592 26-10-2019 01:15:00 13.6 C 10.36 g/m*3 13.6 C 1.6 km/h
593 26-10-2019 01:20:00 13.5 C 10.29 g/m*3 13.5 C 1.6 km/h
594 26-10-2019 01:25:00 13.4 C 10.23 g/m*3 13.4 C 0 km/h
595 26-10-2019 01:30:00 13.4 C 10.35 g/m*3 13.4 C 1.6 km/h
596 26-10-2019 01:35:00 13.6 C 10.36 g/m*3 13.6 C 3.2 km/h
597 26-10-2019 01:40:00 13.8 C 10.48 g/m*3 13.8 C 0 km/h
598 26-10-2019 01:45:00 13.8 C 10.48 g/m*3 13.8 C 1.6 km/h
599 26-10-2019 01:50:00 13.9 C 10.55 g/m*3 13.9 C 0 km/h
600 26-10-2019 01:55:00 14.1 C 10.68 g/m*3 14.1 C 0 km/h
Sensor: Nr:Datum:Temp:Abs-Feuchte:Windchill:Wind:
Aussen-T/F 601 26-10-2019 02:00:00 14.1 C 10.56 g/m*3 14.1 C 4.8 km/h
602 26-10-2019 02:05:00 14.2 C 10.5 g/m*3 14.2 C 4.8 km/h
603 26-10-2019 02:10:00 14.1 C 10.44 g/m*3 14.1 C 0 km/h
604 26-10-2019 02:15:00 13.9 C 10.31 g/m*3 13.9 C 0 km/h
605 26-10-2019 02:20:00 13.8 C 10.37 g/m*3 13.8 C 1.6 km/h
606 26-10-2019 02:25:00 13.6 C 10.24 g/m*3 13.6 C 0 km/h
607 26-10-2019 02:30:00 13.4 C 10.23 g/m*3 13.4 C 1.6 km/h
608 26-10-2019 02:35:00 13.3 C 10.28 g/m*3 13.3 C 0 km/h
609 26-10-2019 02:40:00 13.2 C 10.22 g/m*3 13.2 C 0 km/h
610 26-10-2019 02:45:00 13.1 C 10.16 g/m*3 13.1 C 0 km/h
611 26-10-2019 02:50:00 12.9 C 10.03 g/m*3 12.9 C 0 km/h
612 26-10-2019 02:55:00 12.8 C 10.08 g/m*3 12.8 C 0 km/h
613 26-10-2019 03:00:00 12.8 C 10.08 g/m*3 12.8 C 0 km/h
614 26-10-2019 03:05:00 12.7 C 10.02 g/m*3 12.7 C 0 km/h
615 26-10-2019 03:10:00 12.6 C 10.07 g/m*3 12.6 C 1.6 km/h
616 26-10-2019 03:15:00 12.5 C 10 g/m*3 12.5 C 0 km/h
617 26-10-2019 03:20:00 12.4 C 9.94 g/m*3 12.4 C 0 km/h
618 26-10-2019 03:25:00 12.3 C 9.88 g/m*3 12.3 C 4.8 km/h
619 26-10-2019 03:30:00 12.3 C 9.88 g/m*3 12.3 C 0 km/h
620 26-10-2019 03:35:00 12.2 C 9.82 g/m*3 12.2 C 0 km/h
621 26-10-2019 03:40:00 12 C 9.8 g/m*3 12 C 0 km/h
622 26-10-2019 03:45:00 11.9 C 9.74 g/m*3 11.9 C 0 km/h
623 26-10-2019 03:50:00 11.8 C 9.68 g/m*3 11.8 C 0 km/h
624 26-10-2019 03:55:00 11.7 C 9.62 g/m*3 11.7 C 0 km/h
625 26-10-2019 04:00:00 11.7 C 9.73 g/m*3 11.7 C 0 km/h
Sensor: Nr:Datum:Temp:Abs-Feuchte:Windchill:Wind:
Aussen-T/F 626 26-10-2019 04:05:00 11.6 C 9.67 g/m*3 11.6 C 0 km/h
627 26-10-2019 04:10:00 11.6 C 9.67 g/m*3 11.6 C 0 km/h
628 26-10-2019 04:15:00 11.5 C 9.61 g/m*3 11.5 C 0 km/h
629 26-10-2019 04:20:00 11.4 C 9.55 g/m*3 11.4 C 0 km/h
630 26-10-2019 04:25:00 11.3 C 9.49 g/m*3 11.3 C 0 km/h
631 26-10-2019 04:30:00 11.3 C 9.59 g/m*3 11.3 C 0 km/h
632 26-10-2019 04:35:00 11.4 C 9.65 g/m*3 11.4 C 0 km/h
633 26-10-2019 04:40:00 11.7 C 9.94 g/m*3 11.7 C 9.7 km/h
634 26-10-2019 04:45:00 11.8 C 10 g/m*3 11.8 C 6.4 km/h
635 26-10-2019 04:50:00 11.9 C 9.96 g/m*3 11.9 C 3.2 km/h
636 26-10-2019 04:55:00 11.9 C 9.96 g/m*3 11.9 C 1.6 km/h
637 26-10-2019 05:00:00 12.1 C 10.08 g/m*3 12.1 C 1.6 km/h
638 26-10-2019 05:05:00 12.2 C 10.14 g/m*3 12.2 C 8.1 km/h
639 26-10-2019 05:10:00 12.2 C 10.14 g/m*3 12.2 C 8.1 km/h
640 26-10-2019 05:15:00 12.3 C 10.21 g/m*3 12.3 C 3.2 km/h
641 26-10-2019 05:20:00 12.3 C 10.21 g/m*3 12.3 C 1.6 km/h
642 26-10-2019 05:25:00 12.4 C 10.16 g/m*3 12.4 C 3.2 km/h
643 26-10-2019 05:30:00 12.4 C 10.16 g/m*3 12.4 C 1.6 km/h
644 26-10-2019 05:35:00 12.4 C 10.16 g/m*3 12.4 C 0 km/h
645 26-10-2019 05:40:00 12.4 C 10.05 g/m*3 12.4 C 0 km/h
646 26-10-2019 05:45:00 12.3 C 9.99 g/m*3 12.3 C 0 km/h
647 26-10-2019 05:50:00 12.3 C 9.99 g/m*3 12.3 C 0 km/h
648 26-10-2019 05:55:00 12.2 C 9.93 g/m*3 12.2 C 0 km/h
649 26-10-2019 06:00:00 12.2 C 9.93 g/m*3 12.2 C 0 km/h
650 26-10-2019 06:05:00 12.1 C 9.97 g/m*3 12.1 C 1.6 km/h
Sensor: Nr:Datum:Temp:Abs-Feuchte:Windchill:Wind:
Aussen-T/F 651 26-10-2019 06:10:00 12.1 C 9.97 g/m*3 12.1 C 0 km/h
652 26-10-2019 06:15:00 11.9 C 9.85 g/m*3 11.9 C 0 km/h
653 26-10-2019 06:20:00 11.9 C 9.85 g/m*3 11.9 C 0 km/h
654 26-10-2019 06:25:00 11.8 C 9.79 g/m*3 11.8 C 0 km/h
655 26-10-2019 06:30:00 11.8 C 9.79 g/m*3 11.8 C 0 km/h
656 26-10-2019 06:35:00 11.8 C 9.89 g/m*3 11.8 C 0 km/h
657 26-10-2019 06:40:00 11.7 C 9.83 g/m*3 11.7 C 0 km/h
658 26-10-2019 06:45:00 11.7 C 9.83 g/m*3 11.7 C 0 km/h
659 26-10-2019 06:50:00 11.7 C 9.83 g/m*3 11.7 C 0 km/h
660 26-10-2019 06:55:00 11.7 C 9.83 g/m*3 11.7 C 0 km/h
661 26-10-2019 07:00:00 11.7 C 9.83 g/m*3 11.7 C 0 km/h
662 26-10-2019 07:05:00 11.6 C 9.77 g/m*3 11.6 C 0 km/h
663 26-10-2019 07:10:00 11.5 C 9.71 g/m*3 11.5 C 0 km/h
664 26-10-2019 07:15:00 11.4 C 9.65 g/m*3 11.4 C 0 km/h
665 26-10-2019 07:20:00 11.3 C 9.59 g/m*3 11.3 C 0 km/h
666 26-10-2019 07:25:00 11.2 C 9.53 g/m*3 11.2 C 0 km/h
667 26-10-2019 07:30:00 11.1 C 9.47 g/m*3 11.1 C 0 km/h
668 26-10-2019 07:35:00 10.9 C 9.35 g/m*3 10.9 C 0 km/h
669 26-10-2019 07:40:00 10.8 C 9.29 g/m*3 10.8 C 0 km/h
670 26-10-2019 07:45:00 10.7 C 9.23 g/m*3 10.7 C 0 km/h
671 26-10-2019 07:50:00 10.6 C 9.17 g/m*3 10.6 C 0 km/h
672 26-10-2019 07:55:00 10.4 C 9.06 g/m*3 10.4 C 0 km/h
673 26-10-2019 08:00:00 10.4 C 9.06 g/m*3 10.4 C 0 km/h
674 26-10-2019 08:05:00 10.3 C 9 g/m*3 10.3 C 0 km/h
675 26-10-2019 08:10:00 10.2 C 8.95 g/m*3 10.2 C 0 km/h
Sensor: Nr:Datum:Temp:Abs-Feuchte:Windchill:Wind:
Aussen-T/F 676 26-10-2019 08:15:00 10.1 C 8.89 g/m*3 10.1 C 0 km/h
677 26-10-2019 08:20:00 10.1 C 8.98 g/m*3 10.1 C 0 km/h
678 26-10-2019 08:25:00 10.1 C 8.98 g/m*3 10.1 C 0 km/h
679 26-10-2019 08:30:00 10.1 C 8.98 g/m*3 10.1 C 0 km/h
680 26-10-2019 08:35:00 10.1 C 8.98 g/m*3 10.1 C 0 km/h
681 26-10-2019 08:40:00 10.1 C 8.98 g/m*3 10.1 C 0 km/h
682 26-10-2019 08:45:00 10.1 C 8.98 g/m*3 10.1 C 0 km/h
683 26-10-2019 08:50:00 10.2 C 9.14 g/m*3 10.2 C 0 km/h
684 26-10-2019 08:55:00 10.1 C 8.98 g/m*3 10.1 C 0 km/h
685 26-10-2019 09:00:00 10.1 C 9.08 g/m*3 10.1 C 0 km/h
686 26-10-2019 09:05:00 10.1 C 9.08 g/m*3 10.1 C 0 km/h
687 26-10-2019 09:10:00 10.1 C 9.08 g/m*3 10.1 C 0 km/h
688 26-10-2019 09:15:00 10.2 C 9.14 g/m*3 10.2 C 0 km/h
689 26-10-2019 09:20:00 10.2 C 9.14 g/m*3 10.2 C 0 km/h
690 26-10-2019 09:25:00 10.3 C 9.19 g/m*3 10.3 C 0 km/h
691 26-10-2019 09:30:00 10.3 C 9.19 g/m*3 10.3 C 0 km/h
692 26-10-2019 09:35:00 10.4 C 9.25 g/m*3 10.4 C 0 km/h
693 26-10-2019 09:40:00 10.4 C 9.25 g/m*3 10.4 C 0 km/h
694 26-10-2019 09:45:00 10.5 C 9.31 g/m*3 10.5 C 0 km/h
695 26-10-2019 09:50:00 10.6 C 9.37 g/m*3 10.6 C 0 km/h
696 26-10-2019 09:55:00 10.7 C 9.43 g/m*3 10.7 C 0 km/h
697 26-10-2019 10:00:00 10.7 C 9.43 g/m*3 10.7 C 0 km/h
698 26-10-2019 10:05:00 10.8 C 9.49 g/m*3 10.8 C 0 km/h
699 26-10-2019 10:10:00 10.9 C 9.55 g/m*3 10.9 C 0 km/h
700 26-10-2019 10:15:00 11 C 9.61 g/m*3 11 C 0 km/h
Sensor: Nr:Datum:Temp:Abs-Feuchte:Windchill:Wind:
Aussen-T/F 701 26-10-2019 10:20:00 11.1 C 9.77 g/m*3 11.1 C 0 km/h
702 26-10-2019 10:25:00 11.2 C 9.83 g/m*3 11.2 C 0 km/h
703 26-10-2019 10:30:00 11.3 C 9.89 g/m*3 11.3 C 0 km/h
704 26-10-2019 10:35:00 11.4 C 9.96 g/m*3 11.4 C 0 km/h
705 26-10-2019 10:40:00 11.5 C 10.02 g/m*3 11.5 C 0 km/h
706 26-10-2019 10:45:00 11.7 C 10.15 g/m*3 11.7 C 0 km/h
707 26-10-2019 10:50:00 11.8 C 10.21 g/m*3 11.8 C 0 km/h
708 26-10-2019 10:55:00 11.8 C 10.21 g/m*3 11.8 C 0 km/h
709 26-10-2019 11:00:00 11.9 C 10.27 g/m*3 11.9 C 0 km/h
710 26-10-2019 11:05:00 12 C 10.34 g/m*3 12 C 0 km/h
711 26-10-2019 11:10:00 12.2 C 10.47 g/m*3 12.2 C 0 km/h
712 26-10-2019 11:15:00 12.2 C 10.47 g/m*3 12.2 C 0 km/h
713 26-10-2019 11:20:00 12.3 C 10.53 g/m*3 12.3 C 0 km/h
714 26-10-2019 11:25:00 12.4 C 10.6 g/m*3 12.4 C 0 km/h
715 26-10-2019 11:30:00 12.6 C 10.73 g/m*3 12.6 C 0 km/h
716 26-10-2019 11:35:00 12.7 C 10.8 g/m*3 12.7 C 0 km/h
717 26-10-2019 11:40:00 12.8 C 10.87 g/m*3 12.8 C 0 km/h
718 26-10-2019 11:45:00 12.8 C 10.87 g/m*3 12.8 C 0 km/h
719 26-10-2019 11:50:00 12.9 C 10.82 g/m*3 12.9 C 0 km/h
720 26-10-2019 11:55:00 12.9 C 10.82 g/m*3 12.9 C 0 km/h
721 26-10-2019 12:00:00 13.1 C 10.95 g/m*3 13.1 C 0 km/h
722 26-10-2019 12:05:00 13.1 C 10.95 g/m*3 13.1 C 0 km/h
723 26-10-2019 12:10:00 13.3 C 11.09 g/m*3 13.3 C 1.6 km/h
724 26-10-2019 12:15:00 13.4 C 11.16 g/m*3 13.4 C 4.8 km/h
725 26-10-2019 12:20:00 13.6 C 11.3 g/m*3 13.6 C 3.2 km/h
Sensor: Nr:Datum:Temp:Abs-Feuchte:Windchill:Wind:
Aussen-T/F 726 26-10-2019 12:25:00 13.8 C 11.44 g/m*3 13.8 C 0 km/h
727 26-10-2019 12:30:00 13.9 C 11.39 g/m*3 13.9 C 0 km/h
728 26-10-2019 12:35:00 14.1 C 11.53 g/m*3 14.1 C 0 km/h
729 26-10-2019 12:40:00 14.2 C 11.6 g/m*3 14.2 C 1.6 km/h
730 26-10-2019 12:45:00 14.3 C 11.55 g/m*3 14.3 C 1.6 km/h
731 26-10-2019 12:50:00 14.4 C 11.62 g/m*3 14.4 C 1.6 km/h
732 26-10-2019 12:55:00 14.6 C 11.51 g/m*3 14.6 C 0 km/h
733 26-10-2019 13:00:00 14.7 C 11.58 g/m*3 14.7 C 0 km/h
734 26-10-2019 13:05:00 14.8 C 11.65 g/m*3 14.8 C 0 km/h
735 26-10-2019 13:10:00 14.9 C 11.6 g/m*3 14.9 C 0 km/h
736 26-10-2019 13:15:00 15.1 C 11.74 g/m*3 15.1 C 0 km/h
737 26-10-2019 13:20:00 15.1 C 11.61 g/m*3 15.1 C 0 km/h
738 26-10-2019 13:25:00 15.2 C 11.68 g/m*3 15.2 C 0 km/h
739 26-10-2019 13:30:00 15.3 C 11.75 g/m*3 15.3 C 0 km/h
740 26-10-2019 13:35:00 15.3 C 11.75 g/m*3 15.3 C 0 km/h
741 26-10-2019 13:40:00 15.3 C 11.62 g/m*3 15.3 C 1.6 km/h
742 26-10-2019 13:45:00 15.3 C 11.49 g/m*3 15.3 C 3.2 km/h
743 26-10-2019 13:50:00 15.5 C 11.63 g/m*3 15.5 C 4.8 km/h
744 26-10-2019 13:55:00 15.7 C 11.77 g/m*3 15.7 C 1.6 km/h
745 26-10-2019 14:00:00 15.8 C 11.71 g/m*3 15.8 C 1.6 km/h
746 26-10-2019 14:05:00 16.1 C 11.93 g/m*3 16.1 C 4.8 km/h
747 26-10-2019 14:10:00 16.3 C 11.65 g/m*3 16.3 C 4.8 km/h
748 26-10-2019 14:15:00 16.5 C 11.94 g/m*3 16.5 C 1.6 km/h
749 26-10-2019 14:20:00 16.6 C 12.01 g/m*3 16.6 C 1.6 km/h
750 26-10-2019 14:25:00 16.7 C 12.22 g/m*3 16.7 C 0 km/h
Sensor: Nr:Datum:Temp:Abs-Feuchte:Windchill:Wind:
Aussen-T/F 751 26-10-2019 14:30:00 16.7 C 12.22 g/m*3 16.7 C 0 km/h
752 26-10-2019 14:35:00 16.7 C 12.08 g/m*3 16.7 C 1.6 km/h
753 26-10-2019 14:40:00 16.7 C 11.94 g/m*3 16.7 C 3.2 km/h
754 26-10-2019 14:45:00 16.7 C 11.94 g/m*3 16.7 C 3.2 km/h
755 26-10-2019 14:50:00 16.8 C 12.01 g/m*3 16.8 C 1.6 km/h
756 26-10-2019 14:55:00 16.8 C 12.01 g/m*3 16.8 C 3.2 km/h
757 26-10-2019 15:00:00 16.8 C 11.87 g/m*3 16.8 C 3.2 km/h
758 26-10-2019 15:05:00 16.8 C 12.01 g/m*3 16.8 C 1.6 km/h
759 26-10-2019 15:10:00 16.9 C 12.08 g/m*3 16.9 C 1.6 km/h
760 26-10-2019 15:15:00 16.9 C 12.08 g/m*3 16.9 C 1.6 km/h
761 26-10-2019 15:20:00 16.8 C 12.01 g/m*3 16.8 C 0 km/h
762 26-10-2019 15:25:00 16.8 C 12.15 g/m*3 16.8 C 0 km/h
763 26-10-2019 15:30:00 16.8 C 12.15 g/m*3 16.8 C 0 km/h
764 26-10-2019 15:35:00 16.8 C 12.15 g/m*3 16.8 C 0 km/h
765 26-10-2019 15:40:00 16.7 C 12.08 g/m*3 16.7 C 0 km/h
766 26-10-2019 15:45:00 16.7 C 12.08 g/m*3 16.7 C 0 km/h
767 26-10-2019 15:50:00 16.7 C 12.22 g/m*3 16.7 C 0 km/h
768 26-10-2019 15:55:00 16.7 C 12.22 g/m*3 16.7 C 0 km/h
769 26-10-2019 16:00:00 16.7 C 12.22 g/m*3 16.7 C 0 km/h
770 26-10-2019 16:05:00 16.7 C 12.22 g/m*3 16.7 C 1.6 km/h
771 26-10-2019 16:10:00 16.6 C 11.87 g/m*3 16.6 C 4.8 km/h
772 26-10-2019 16:15:00 16.7 C 12.22 g/m*3 16.7 C 0 km/h
773 26-10-2019 16:20:00 16.8 C 12.3 g/m*3 16.8 C 0 km/h
774 26-10-2019 16:25:00 16.7 C 12.08 g/m*3 16.7 C 1.6 km/h
775 26-10-2019 16:30:00 16.7 C 12.22 g/m*3 16.7 C 0 km/h
Sensor: Nr:Datum:Temp:Abs-Feuchte:Windchill:Wind:
Aussen-T/F 776 26-10-2019 16:35:00 16.6 C 12.15 g/m*3 16.6 C 0 km/h
777 26-10-2019 16:40:00 16.4 C 12 g/m*3 16.4 C 0 km/h
778 26-10-2019 16:45:00 16.3 C 11.93 g/m*3 16.3 C 1.6 km/h
779 26-10-2019 16:50:00 16.2 C 11.86 g/m*3 16.2 C 1.6 km/h
780 26-10-2019 16:55:00 16 C 11.72 g/m*3 16 C 1.6 km/h
781 26-10-2019 17:00:00 15.9 C 11.78 g/m*3 15.9 C 3.2 km/h
782 26-10-2019 17:05:00 15.8 C 11.71 g/m*3 15.8 C 1.6 km/h
783 26-10-2019 17:10:00 15.7 C 11.64 g/m*3 15.7 C 3.2 km/h
784 26-10-2019 17:15:00 15.6 C 11.57 g/m*3 15.6 C 1.6 km/h
785 26-10-2019 17:20:00 15.5 C 11.5 g/m*3 15.5 C 3.2 km/h
786 26-10-2019 17:25:00 15.4 C 11.43 g/m*3 15.4 C 0 km/h
787 26-10-2019 17:30:00 15.3 C 11.36 g/m*3 15.3 C 0 km/h
788 26-10-2019 17:35:00 15.2 C 11.42 g/m*3 15.2 C 1.6 km/h
789 26-10-2019 17:40:00 15 C 11.28 g/m*3 15 C 0 km/h
790 26-10-2019 17:45:00 14.9 C 11.22 g/m*3 14.9 C 1.6 km/h
791 26-10-2019 17:50:00 14.8 C 11.15 g/m*3 14.8 C 1.6 km/h
792 26-10-2019 17:55:00 14.7 C 11.08 g/m*3 14.7 C 1.6 km/h
793 26-10-2019 18:00:00 14.6 C 11.01 g/m*3 14.6 C 1.6 km/h
794 26-10-2019 18:05:00 14.4 C 10.88 g/m*3 14.4 C 0 km/h
795 26-10-2019 18:10:00 14.3 C 10.81 g/m*3 14.3 C 0 km/h
796 26-10-2019 18:15:00 14.2 C 10.87 g/m*3 14.2 C 0 km/h
797 26-10-2019 18:20:00 14.1 C 10.8 g/m*3 14.1 C 1.6 km/h
798 26-10-2019 18:25:00 14.1 C 10.8 g/m*3 14.1 C 0 km/h
799 26-10-2019 18:30:00 13.9 C 10.67 g/m*3 13.9 C 0 km/h
800 26-10-2019 18:35:00 13.7 C 10.54 g/m*3 13.7 C 0 km/h
Sensor: Nr:Datum:Temp:Abs-Feuchte:Windchill:Wind:
Aussen-T/F 801 26-10-2019 18:40:00 13.6 C 10.59 g/m*3 13.6 C 0 km/h
802 26-10-2019 18:45:00 13.5 C 10.53 g/m*3 13.5 C 0 km/h
803 26-10-2019 18:50:00 13.4 C 10.46 g/m*3 13.4 C 1.6 km/h
804 26-10-2019 18:55:00 13.3 C 10.4 g/m*3 13.3 C 1.6 km/h
805 26-10-2019 19:00:00 13.3 C 10.4 g/m*3 13.3 C 1.6 km/h
806 26-10-2019 19:05:00 13.3 C 10.4 g/m*3 13.3 C 0 km/h
807 26-10-2019 19:10:00 13.2 C 10.33 g/m*3 13.2 C 0 km/h
808 26-10-2019 19:15:00 13.2 C 10.33 g/m*3 13.2 C 0 km/h
809 26-10-2019 19:20:00 13.1 C 10.38 g/m*3 13.1 C 0 km/h
810 26-10-2019 19:25:00 13 C 10.32 g/m*3 13 C 0 km/h
811 26-10-2019 19:30:00 12.9 C 10.26 g/m*3 12.9 C 1.6 km/h
812 26-10-2019 19:35:00 12.8 C 10.19 g/m*3 12.8 C 0 km/h
813 26-10-2019 19:40:00 12.8 C 10.3 g/m*3 12.8 C 0 km/h
814 26-10-2019 19:45:00 12.7 C 10.24 g/m*3 12.7 C 0 km/h
815 26-10-2019 19:50:00 12.7 C 10.24 g/m*3 12.7 C 0 km/h
816 26-10-2019 19:55:00 12.7 C 10.24 g/m*3 12.7 C 0 km/h
817 26-10-2019 20:00:00 12.7 C 10.24 g/m*3 12.7 C 0 km/h
818 26-10-2019 20:05:00 12.7 C 10.24 g/m*3 12.7 C 0 km/h
819 26-10-2019 20:10:00 12.8 C 10.42 g/m*3 12.8 C 1.6 km/h
820 26-10-2019 20:15:00 12.8 C 10.42 g/m*3 12.8 C 1.6 km/h
821 26-10-2019 20:20:00 12.8 C 10.42 g/m*3 12.8 C 0 km/h
822 26-10-2019 20:25:00 12.9 C 10.48 g/m*3 12.9 C 0 km/h
823 26-10-2019 20:30:00 12.9 C 10.48 g/m*3 12.9 C 0 km/h
824 26-10-2019 20:35:00 12.9 C 10.48 g/m*3 12.9 C 0 km/h
825 26-10-2019 20:40:00 12.9 C 10.48 g/m*3 12.9 C 1.6 km/h
Sensor: Nr:Datum:Temp:Abs-Feuchte:Windchill:Wind:
Aussen-T/F 826 26-10-2019 20:45:00 13 C 10.55 g/m*3 13 C 0 km/h
827 26-10-2019 20:50:00 13 C 10.43 g/m*3 13 C 0 km/h
828 26-10-2019 20:55:00 13 C 10.43 g/m*3 13 C 0 km/h
829 26-10-2019 21:00:00 13 C 10.43 g/m*3 13 C 0 km/h
830 26-10-2019 21:05:00 12.9 C 10.37 g/m*3 12.9 C 0 km/h
831 26-10-2019 21:10:00 13 C 10.43 g/m*3 13 C 0 km/h
832 26-10-2019 21:15:00 13.1 C 10.5 g/m*3 13.1 C 0 km/h
833 26-10-2019 21:20:00 13.1 C 10.5 g/m*3 13.1 C 0 km/h
834 26-10-2019 21:25:00 13.1 C 10.5 g/m*3 13.1 C 0 km/h
835 26-10-2019 21:30:00 13 C 10.43 g/m*3 13 C 0 km/h
836 26-10-2019 21:35:00 13 C 10.43 g/m*3 13 C 0 km/h
837 26-10-2019 21:40:00 13 C 10.43 g/m*3 13 C 0 km/h
838 26-10-2019 21:45:00 12.9 C 10.37 g/m*3 12.9 C 0 km/h
839 26-10-2019 21:50:00 12.9 C 10.37 g/m*3 12.9 C 0 km/h
840 26-10-2019 21:55:00 12.9 C 10.48 g/m*3 12.9 C 0 km/h
841 26-10-2019 22:00:00 12.8 C 10.42 g/m*3 12.8 C 0 km/h
842 26-10-2019 22:05:00 12.8 C 10.42 g/m*3 12.8 C 0 km/h
843 26-10-2019 22:10:00 12.7 C 10.35 g/m*3 12.7 C 0 km/h
844 26-10-2019 22:15:00 12.7 C 10.35 g/m*3 12.7 C 0 km/h
845 26-10-2019 22:20:00 12.7 C 10.35 g/m*3 12.7 C 0 km/h
846 26-10-2019 22:25:00 12.7 C 10.35 g/m*3 12.7 C 0 km/h
847 26-10-2019 22:30:00 12.6 C 10.29 g/m*3 12.6 C 0 km/h
848 26-10-2019 22:35:00 12.6 C 10.29 g/m*3 12.6 C 0 km/h
849 26-10-2019 22:40:00 12.6 C 10.29 g/m*3 12.6 C 0 km/h
850 26-10-2019 22:45:00 12.6 C 10.29 g/m*3 12.6 C 0 km/h
Sensor: Nr:Datum:Temp:Abs-Feuchte:Windchill:Wind:
Aussen-T/F 851 26-10-2019 22:50:00 12.5 C 10.22 g/m*3 12.5 C 0 km/h
852 26-10-2019 22:55:00 12.4 C 10.16 g/m*3 12.4 C 0 km/h
853 26-10-2019 23:00:00 12.4 C 10.27 g/m*3 12.4 C 0 km/h
854 26-10-2019 23:05:00 12.4 C 10.27 g/m*3 12.4 C 0 km/h
855 26-10-2019 23:10:00 12.4 C 10.27 g/m*3 12.4 C 0 km/h
856 26-10-2019 23:15:00 12.5 C 10.33 g/m*3 12.5 C 0 km/h
857 26-10-2019 23:20:00 12.6 C 10.4 g/m*3 12.6 C 0 km/h
858 26-10-2019 23:25:00 12.6 C 10.4 g/m*3 12.6 C 0 km/h
859 26-10-2019 23:30:00 12.6 C 10.4 g/m*3 12.6 C 0 km/h
860 26-10-2019 23:35:00 12.7 C 10.46 g/m*3 12.7 C 4.8 km/h
861 26-10-2019 23:40:00 12.8 C 10.53 g/m*3 12.8 C 0 km/h
862 26-10-2019 23:45:00 12.8 C 10.53 g/m*3 12.8 C 0 km/h
863 26-10-2019 23:50:00 12.8 C 10.42 g/m*3 12.8 C 0 km/h
864 26-10-2019 23:55:00 12.9 C 10.48 g/m*3 12.9 C 0 km/h
865 27-10-2019 00:00:00 12.8 C 10.42 g/m*3 12.8 C 1.6 km/h
866 27-10-2019 00:05:00 12.9 C 10.48 g/m*3 12.9 C 1.6 km/h
867 27-10-2019 00:10:00 13 C 10.55 g/m*3 13 C 3.2 km/h
868 27-10-2019 00:15:00 13.1 C 10.5 g/m*3 13.1 C 0 km/h
869 27-10-2019 00:20:00 13.1 C 10.5 g/m*3 13.1 C 0 km/h
870 27-10-2019 00:25:00 13.1 C 10.5 g/m*3 13.1 C 0 km/h
871 27-10-2019 00:30:00 13.2 C 10.56 g/m*3 13.2 C 1.6 km/h
872 27-10-2019 00:35:00 13.7 C 10.42 g/m*3 13.7 C 12.9 km/h
873 27-10-2019 00:40:00 14.1 C 10.68 g/m*3 14.1 C 4.8 km/h
874 27-10-2019 00:45:00 14.2 C 10.75 g/m*3 14.2 C 1.6 km/h
875 27-10-2019 00:50:00 14.1 C 10.56 g/m*3 14.1 C 1.6 km/h
Sensor: Nr:Datum:Temp:Abs-Feuchte:Windchill:Wind:
Aussen-T/F 876 27-10-2019 00:55:00 14.2 C 10.5 g/m*3 14.2 C 11.3 km/h
877 27-10-2019 01:00:00 14.2 C 10.62 g/m*3 14.2 C 0 km/h
878 27-10-2019 01:05:00 14.1 C 10.44 g/m*3 14.1 C 0 km/h
879 27-10-2019 01:10:00 14 C 10.49 g/m*3 14 C 1.6 km/h
880 27-10-2019 01:15:00 13.9 C 10.31 g/m*3 13.9 C 1.6 km/h
881 27-10-2019 01:20:00 13.9 C 10.43 g/m*3 13.9 C 1.6 km/h
882 27-10-2019 01:25:00 13.9 C 10.43 g/m*3 13.9 C 0 km/h
883 27-10-2019 01:30:00 13.7 C 10.3 g/m*3 13.7 C 1.6 km/h
884 27-10-2019 01:35:00 13.6 C 10.36 g/m*3 13.6 C 3.2 km/h
885 27-10-2019 01:40:00 13.6 C 10.36 g/m*3 13.6 C 0 km/h
886 27-10-2019 01:45:00 13.4 C 10.35 g/m*3 13.4 C 0 km/h
887 27-10-2019 01:50:00 13.3 C 10.28 g/m*3 13.3 C 0 km/h
888 27-10-2019 01:55:00 13.3 C 10.28 g/m*3 13.3 C 0 km/h
889 27-10-2019 02:00:00 13.2 C 10.22 g/m*3 13.2 C 3.2 km/h
890 27-10-2019 02:05:00 13.3 C 10.28 g/m*3 13.3 C 0 km/h
891 27-10-2019 02:10:00 13.3 C 10.28 g/m*3 13.3 C 3.2 km/h
892 27-10-2019 02:15:00 13.2 C 10.22 g/m*3 13.2 C 1.6 km/h
893 27-10-2019 02:20:00 13.2 C 10.22 g/m*3 13.2 C 0 km/h
894 27-10-2019 02:25:00 13 C 10.09 g/m*3 13 C 0 km/h
895 27-10-2019 02:30:00 12.9 C 10.14 g/m*3 12.9 C 0 km/h
896 27-10-2019 02:35:00 12.8 C 10.08 g/m*3 12.8 C 1.6 km/h
897 27-10-2019 02:40:00 12.8 C 10.08 g/m*3 12.8 C 0 km/h
898 27-10-2019 02:45:00 12.7 C 10.02 g/m*3 12.7 C 3.2 km/h
899 27-10-2019 02:50:00 12.7 C 10.02 g/m*3 12.7 C 6.4 km/h
900 27-10-2019 02:55:00 12.7 C 10.02 g/m*3 12.7 C 4.8 km/h
Sensor: Nr:Datum:Temp:Abs-Feuchte:Windchill:Wind:
Aussen-T/F 901 27-10-2019 04:00:00 12.7 C 10.13 g/m*3 12.7 C 3.2 km/h
902 27-10-2019 04:05:00 12.6 C 10.07 g/m*3 12.6 C 3.2 km/h
903 27-10-2019 04:05:00 11.9 C 9.85 g/m*3 11.9 C 0 km/h
904 27-10-2019 04:10:00 12.6 C 10.07 g/m*3 12.6 C 1.6 km/h
905 27-10-2019 04:10:00 11.9 C 9.85 g/m*3 11.9 C 1.6 km/h
906 27-10-2019 04:15:00 12.4 C 9.94 g/m*3 12.4 C 3.2 km/h
907 27-10-2019 04:15:00 11.9 C 9.85 g/m*3 11.9 C 0 km/h
908 27-10-2019 04:20:00 11.9 C 9.85 g/m*3 11.9 C 0 km/h
909 27-10-2019 04:20:00 12.4 C 10.05 g/m*3 12.4 C 1.6 km/h
910 27-10-2019 04:25:00 11.9 C 9.85 g/m*3 11.9 C 0 km/h
911 27-10-2019 04:25:00 12.4 C 10.05 g/m*3 12.4 C 0 km/h
912 27-10-2019 04:30:00 11.9 C 9.85 g/m*3 11.9 C 0 km/h
913 27-10-2019 04:30:00 12.3 C 9.99 g/m*3 12.3 C 0 km/h
914 27-10-2019 04:35:00 11.9 C 9.85 g/m*3 11.9 C 1.6 km/h
915 27-10-2019 04:35:00 12.2 C 9.93 g/m*3 12.2 C 0 km/h
916 27-10-2019 04:40:00 12.2 C 9.82 g/m*3 12.2 C 0 km/h
917 27-10-2019 04:40:00 12.1 C 9.97 g/m*3 12.1 C 0 km/h
918 27-10-2019 04:45:00 12.1 C 9.87 g/m*3 12.1 C 0 km/h
919 27-10-2019 04:45:00 12.1 C 9.97 g/m*3 12.1 C 1.6 km/h
920 27-10-2019 04:50:00 11.9 C 9.74 g/m*3 11.9 C 0 km/h
921 27-10-2019 04:50:00 12.3 C 10.1 g/m*3 12.3 C 4.8 km/h
922 27-10-2019 04:55:00 11.9 C 9.74 g/m*3 11.9 C 0 km/h
923 27-10-2019 04:55:00 12.5 C 10.11 g/m*3 12.5 C 1.6 km/h
924 27-10-2019 05:00:00 12.6 C 10.07 g/m*3 12.6 C 0 km/h
925 27-10-2019 05:00:00 11.9 C 9.85 g/m*3 11.9 C 0 km/h
Sensor: Nr:Datum:Temp:Abs-Feuchte:Windchill:Wind:
Aussen-T/F 926 27-10-2019 05:05:00 12.7 C 10.13 g/m*3 12.7 C 0 km/h
927 27-10-2019 05:10:00 12.7 C 10.13 g/m*3 12.7 C 0 km/h
928 27-10-2019 05:15:00 12.8 C 10.19 g/m*3 12.8 C 0 km/h
929 27-10-2019 05:20:00 12.8 C 10.19 g/m*3 12.8 C 1.6 km/h
930 27-10-2019 05:25:00 12.9 C 10.37 g/m*3 12.9 C 0 km/h
931 27-10-2019 05:30:00 13 C 10.32 g/m*3 13 C 1.6 km/h
932 27-10-2019 05:35:00 13.1 C 10.38 g/m*3 13.1 C 0 km/h
933 27-10-2019 05:40:00 13.1 C 10.38 g/m*3 13.1 C 4.8 km/h
934 27-10-2019 05:45:00 13.2 C 10.45 g/m*3 13.2 C 0 km/h
935 27-10-2019 05:50:00 13.3 C 10.51 g/m*3 13.3 C 3.2 km/h
936 27-10-2019 05:55:00 13.3 C 10.51 g/m*3 13.3 C 1.6 km/h
937 27-10-2019 06:00:00 13.4 C 10.35 g/m*3 13.4 C 1.6 km/h
938 27-10-2019 06:05:00 13.7 C 10.42 g/m*3 13.7 C 14.5 km/h
939 27-10-2019 06:10:00 13.9 C 10.43 g/m*3 13.9 C 14.5 km/h
940 27-10-2019 06:15:00 14.2 C 10.62 g/m*3 14.2 C 1.6 km/h
941 27-10-2019 06:20:00 14.2 C 10.5 g/m*3 14.2 C 8.1 km/h
942 27-10-2019 06:25:00 14.3 C 10.44 g/m*3 14.3 C 11.3 km/h
943 27-10-2019 06:30:00 14.3 C 10.44 g/m*3 14.3 C 6.4 km/h
944 27-10-2019 06:35:00 14.3 C 10.44 g/m*3 14.3 C 6.4 km/h
945 27-10-2019 06:40:00 14.3 C 10.44 g/m*3 14.3 C 4.8 km/h
946 27-10-2019 06:45:00 14.3 C 10.44 g/m*3 14.3 C 1.6 km/h
947 27-10-2019 06:50:00 14.3 C 10.44 g/m*3 14.3 C 3.2 km/h
948 27-10-2019 06:55:00 14.3 C 10.44 g/m*3 14.3 C 11.3 km/h
949 27-10-2019 07:00:00 14.4 C 10.51 g/m*3 14.4 C 9.7 km/h
950 27-10-2019 07:05:00 14.4 C 10.51 g/m*3 14.4 C 8.1 km/h
Sensor: Nr:Datum:Temp:Abs-Feuchte:Windchill:Wind:
Aussen-T/F 951 27-10-2019 07:10:00 14.5 C 10.57 g/m*3 14.5 C 11.3 km/h
952 27-10-2019 07:15:00 14.5 C 10.57 g/m*3 14.5 C 4.8 km/h
953 27-10-2019 07:20:00 14.5 C 10.7 g/m*3 14.5 C 6.4 km/h
954 27-10-2019 07:25:00 14.4 C 10.75 g/m*3 14.4 C 4.8 km/h
955 27-10-2019 07:30:00 14.3 C 10.81 g/m*3 14.3 C 1.6 km/h
956 27-10-2019 07:35:00 14.2 C 10.75 g/m*3 14.2 C 9.7 km/h
957 27-10-2019 07:40:00 14.1 C 10.8 g/m*3 14.1 C 11.3 km/h
958 27-10-2019 07:45:00 13.9 C 10.79 g/m*3 13.9 C 9.7 km/h
959 27-10-2019 07:50:00 13.6 C 10.59 g/m*3 13.6 C 19.3 km/h
960 27-10-2019 07:55:00 13.2 C 10.33 g/m*3 13.2 C 19.3 km/h
961 27-10-2019 08:00:00 12.8 C 10.08 g/m*3 12.8 C 14.5 km/h
962 27-10-2019 08:05:00 12.6 C 10.07 g/m*3 12.6 C 9.7 km/h
963 27-10-2019 08:10:00 12.3 C 9.88 g/m*3 12.3 C 12.9 km/h
964 27-10-2019 08:15:00 12.2 C 9.82 g/m*3 12.2 C 9.7 km/h
965 27-10-2019 08:20:00 12.1 C 9.87 g/m*3 12.1 C 8.1 km/h
966 27-10-2019 08:25:00 11.9 C 9.74 g/m*3 11.9 C 11.3 km/h
967 27-10-2019 08:30:00 11.8 C 9.68 g/m*3 11.8 C 12.9 km/h
968 27-10-2019 08:35:00 11.7 C 9.62 g/m*3 11.7 C 3.2 km/h
969 27-10-2019 08:40:00 11.7 C 9.73 g/m*3 11.7 C 12.9 km/h
970 27-10-2019 08:45:00 11.6 C 9.67 g/m*3 11.6 C 14.5 km/h
971 27-10-2019 08:50:00 11.6 C 9.56 g/m*3 11.6 C 11.3 km/h
972 27-10-2019 08:55:00 11.4 C 9.55 g/m*3 11.4 C 9.7 km/h
973 27-10-2019 09:00:00 11.4 C 9.55 g/m*3 11.4 C 8.1 km/h
974 27-10-2019 09:05:00 11.3 C 9.49 g/m*3 11.3 C 14.5 km/h
975 27-10-2019 09:10:00 11.1 C 9.37 g/m*3 11.1 C 14.5 km/h
Sensor: Nr:Datum:Temp:Abs-Feuchte:Windchill:Wind:
Aussen-T/F 976 27-10-2019 09:15:00 10.8 C 9.09 g/m*3 8.96 C 14.5 km/h
977 27-10-2019 09:20:00 10.6 C 8.98 g/m*3 8.92 C 12.9 km/h
978 27-10-2019 09:25:00 10.3 C 8.91 g/m*3 9.04 C 9.7 km/h
979 27-10-2019 09:30:00 10.1 C 8.7 g/m*3 8.31 C 12.9 km/h
980 27-10-2019 09:35:00 10.1 C 8.79 g/m*3 9.48 C 6.4 km/h
981 27-10-2019 09:40:00 10.1 C 8.79 g/m*3 10.1 C 4.8 km/h
982 27-10-2019 09:45:00 9.9 C 8.78 g/m*3 8.56 C 9.7 km/h
983 27-10-2019 09:50:00 9.8 C 8.63 g/m*3 9.8 C 4.8 km/h
984 27-10-2019 09:55:00 9.6 C 8.52 g/m*3 8.91 C 6.4 km/h
985 27-10-2019 10:00:00 9.4 C 8.32 g/m*3 9.4 C 4.8 km/h
986 27-10-2019 10:05:00 9.4 C 8.41 g/m*3 9.4 C 3.2 km/h
987 27-10-2019 10:10:00 9.4 C 8.41 g/m*3 9.4 C 4.8 km/h
988 27-10-2019 10:15:00 9.5 C 8.56 g/m*3 9.5 C 0 km/h
989 27-10-2019 10:20:00 9.6 C 8.61 g/m*3 9.6 C 1.6 km/h
990 27-10-2019 10:25:00 9.6 C 8.61 g/m*3 9.6 C 0 km/h
991 27-10-2019 10:30:00 9.4 C 8.5 g/m*3 9.4 C 4.8 km/h
992 27-10-2019 10:35:00 9.4 C 8.5 g/m*3 9.4 C 0 km/h
993 27-10-2019 10:40:00 9.3 C 8.36 g/m*3 9.3 C 0 km/h
994 27-10-2019 10:45:00 9.3 C 8.45 g/m*3 9.3 C 0 km/h
995 27-10-2019 10:50:00 9.4 C 8.5 g/m*3 9.4 C 0 km/h
996 27-10-2019 10:55:00 9.6 C 8.7 g/m*3 9.6 C 0 km/h
997 27-10-2019 11:00:00 9.7 C 8.76 g/m*3 9.7 C 0 km/h
998 27-10-2019 11:05:00 9.7 C 8.76 g/m*3 9.7 C 0 km/h
999 27-10-2019 11:10:00 9.8 C 8.81 g/m*3 9.8 C 0 km/h
1000 27-10-2019 11:15:00 9.7 C 8.67 g/m*3 9.7 C 0 km/h
Sensor: Nr:Datum:Temp:Abs-Feuchte:Windchill:Wind:
Aussen-T/F 1001 27-10-2019 11:20:00 9.7 C 8.67 g/m*3 9.7 C 0 km/h
1002 27-10-2019 11:25:00 9.7 C 8.76 g/m*3 9.7 C 0 km/h
1003 27-10-2019 11:30:00 9.8 C 8.81 g/m*3 9.8 C 0 km/h
1004 27-10-2019 11:35:00 9.8 C 8.81 g/m*3 9.8 C 4.8 km/h
1005 27-10-2019 11:40:00 9.8 C 8.72 g/m*3 9.8 C 3.2 km/h
1006 27-10-2019 11:45:00 9.8 C 8.72 g/m*3 9.8 C 0 km/h
1007 27-10-2019 11:50:00 9.8 C 8.72 g/m*3 9.8 C 1.6 km/h
1008 27-10-2019 11:55:00 9.8 C 8.72 g/m*3 9.8 C 1.6 km/h
1009 27-10-2019 12:00:00 9.9 C 8.78 g/m*3 9.9 C 1.6 km/h
1010 27-10-2019 12:05:00 10 C 8.93 g/m*3 10 C 0 km/h
1011 27-10-2019 12:10:00 10.1 C 8.98 g/m*3 10.1 C 0 km/h
1012 27-10-2019 12:15:00 10.1 C 8.98 g/m*3 10.1 C 0 km/h
1013 27-10-2019 12:20:00 10 C 8.83 g/m*3 10 C 0 km/h
1014 27-10-2019 12:25:00 10 C 8.83 g/m*3 10 C 0 km/h
1015 27-10-2019 12:30:00 10.1 C 8.98 g/m*3 10.1 C 0 km/h
1016 27-10-2019 12:35:00 10.1 C 8.98 g/m*3 10.1 C 0 km/h
1017 27-10-2019 12:40:00 10 C 8.83 g/m*3 10 C 0 km/h
1018 27-10-2019 12:45:00 9.9 C 8.78 g/m*3 9.9 C 3.2 km/h
1019 27-10-2019 12:50:00 9.9 C 8.78 g/m*3 9.9 C 0 km/h
1020 27-10-2019 12:55:00 9.9 C 8.78 g/m*3 9.9 C 0 km/h
1021 27-10-2019 13:00:00 9.9 C 8.87 g/m*3 9.9 C 0 km/h
1022 27-10-2019 13:05:00 9.9 C 8.87 g/m*3 9.9 C 0 km/h
1023 27-10-2019 13:10:00 9.9 C 8.87 g/m*3 9.9 C 0 km/h
1024 27-10-2019 13:15:00 9.9 C 8.78 g/m*3 9.9 C 0 km/h
1025 27-10-2019 13:20:00 9.9 C 8.78 g/m*3 9.9 C 0 km/h
Sensor: Nr:Datum:Temp:Abs-Feuchte:Windchill:Wind:
Aussen-T/F 1026 27-10-2019 13:25:00 9.9 C 8.87 g/m*3 9.9 C 0 km/h
1027 27-10-2019 13:30:00 9.9 C 8.87 g/m*3 9.9 C 0 km/h
1028 27-10-2019 13:35:00 9.9 C 8.87 g/m*3 9.9 C 0 km/h
1029 27-10-2019 13:40:00 9.9 C 8.87 g/m*3 9.9 C 0 km/h
1030 27-10-2019 13:45:00 9.9 C 8.87 g/m*3 9.9 C 0 km/h
1031 27-10-2019 13:50:00 9.9 C 8.78 g/m*3 9.9 C 0 km/h
1032 27-10-2019 13:55:00 9.9 C 8.78 g/m*3 9.9 C 0 km/h
1033 27-10-2019 14:00:00 9.8 C 8.72 g/m*3 9.8 C 0 km/h
1034 27-10-2019 14:05:00 9.8 C 8.72 g/m*3 9.8 C 1.6 km/h
1035 27-10-2019 14:10:00 9.7 C 8.67 g/m*3 9.7 C 1.6 km/h
1036 27-10-2019 14:15:00 9.7 C 8.67 g/m*3 9.7 C 1.6 km/h
1037 27-10-2019 14:20:00 9.6 C 8.61 g/m*3 9.6 C 0 km/h
1038 27-10-2019 14:25:00 9.4 C 8.5 g/m*3 9.4 C 0 km/h
1039 27-10-2019 14:30:00 9.4 C 8.5 g/m*3 9.4 C 0 km/h
1040 27-10-2019 14:35:00 9.4 C 8.5 g/m*3 9.4 C 0 km/h
1041 27-10-2019 14:40:00 9.4 C 8.5 g/m*3 9.4 C 0 km/h
1042 27-10-2019 14:45:00 9.4 C 8.59 g/m*3 9.4 C 0 km/h
1043 27-10-2019 14:50:00 9.4 C 8.59 g/m*3 9.4 C 0 km/h
1044 27-10-2019 14:55:00 9.4 C 8.59 g/m*3 9.4 C 0 km/h
1045 27-10-2019 15:00:00 9.4 C 8.59 g/m*3 9.4 C 0 km/h
1046 27-10-2019 15:05:00 9.4 C 8.59 g/m*3 9.4 C 0 km/h
1047 27-10-2019 15:10:00 9.5 C 8.65 g/m*3 9.5 C 0 km/h
1048 27-10-2019 15:15:00 9.5 C 8.65 g/m*3 9.5 C 0 km/h
1049 27-10-2019 15:20:00 9.5 C 8.65 g/m*3 9.5 C 0 km/h
1050 27-10-2019 15:25:00 9.5 C 8.65 g/m*3 9.5 C 0 km/h
Sensor: Nr:Datum:Temp:Abs-Feuchte:Windchill:Wind:
Aussen-T/F 1051 27-10-2019 15:30:00 9.4 C 8.59 g/m*3 9.4 C 0 km/h
1052 27-10-2019 15:35:00 9.4 C 8.59 g/m*3 9.4 C 0 km/h
1053 27-10-2019 15:40:00 9.4 C 8.59 g/m*3 9.4 C 0 km/h
1054 27-10-2019 15:45:00 9.4 C 8.59 g/m*3 9.4 C 0 km/h
1055 27-10-2019 15:50:00 9.4 C 8.59 g/m*3 9.4 C 0 km/h
1056 27-10-2019 15:55:00 9.4 C 8.59 g/m*3 9.4 C 0 km/h
1057 27-10-2019 16:00:00 9.4 C 8.59 g/m*3 9.4 C 0 km/h
1058 27-10-2019 16:05:00 9.4 C 8.59 g/m*3 9.4 C 0 km/h
1059 27-10-2019 16:10:00 9.3 C 8.54 g/m*3 9.3 C 0 km/h
1060 27-10-2019 16:15:00 9.3 C 8.54 g/m*3 9.3 C 0 km/h
1061 27-10-2019 16:20:00 9.3 C 8.54 g/m*3 9.3 C 0 km/h
1062 27-10-2019 16:25:00 9.2 C 8.48 g/m*3 9.2 C 0 km/h
1063 27-10-2019 16:30:00 9.2 C 8.48 g/m*3 9.2 C 0 km/h
1064 27-10-2019 16:35:00 9.1 C 8.43 g/m*3 9.1 C 0 km/h
1065 27-10-2019 16:40:00 9.1 C 8.43 g/m*3 9.1 C 0 km/h
1066 27-10-2019 16:45:00 9 C 8.38 g/m*3 9 C 0 km/h
1067 27-10-2019 16:50:00 8.9 C 8.32 g/m*3 8.9 C 0 km/h
1068 27-10-2019 16:55:00 8.8 C 8.27 g/m*3 8.8 C 0 km/h
1069 27-10-2019 17:00:00 8.8 C 8.27 g/m*3 8.8 C 0 km/h
1070 27-10-2019 17:05:00 8.7 C 8.22 g/m*3 8.7 C 0 km/h
1071 27-10-2019 17:10:00 8.7 C 8.22 g/m*3 8.7 C 0 km/h
1072 27-10-2019 17:15:00 8.6 C 8.16 g/m*3 8.6 C 0 km/h
1073 27-10-2019 17:20:00 8.6 C 8.16 g/m*3 8.6 C 0 km/h
1074 27-10-2019 17:25:00 8.6 C 8.16 g/m*3 8.6 C 0 km/h
1075 27-10-2019 17:30:00 8.5 C 8.11 g/m*3 8.5 C 0 km/h
Sensor: Nr:Datum:Temp:Abs-Feuchte:Windchill:Wind:
Aussen-T/F 1076 27-10-2019 17:35:00 8.5 C 8.11 g/m*3 8.5 C 0 km/h
1077 27-10-2019 17:40:00 8.4 C 8.14 g/m*3 8.4 C 0 km/h
1078 27-10-2019 17:45:00 8.4 C 8.14 g/m*3 8.4 C 0 km/h
1079 27-10-2019 17:50:00 8.4 C 8.14 g/m*3 8.4 C 0 km/h
1080 27-10-2019 17:55:00 8.4 C 8.14 g/m*3 8.4 C 0 km/h
1081 27-10-2019 18:00:00 8.4 C 8.14 g/m*3 8.4 C 0 km/h
1082 27-10-2019 18:05:00 8.4 C 8.14 g/m*3 8.4 C 0 km/h
1083 27-10-2019 18:10:00 8.4 C 8.14 g/m*3 8.4 C 0 km/h
1084 27-10-2019 18:15:00 8.4 C 8.14 g/m*3 8.4 C 0 km/h
1085 27-10-2019 18:20:00 8.4 C 8.14 g/m*3 8.4 C 0 km/h
1086 27-10-2019 18:25:00 8.4 C 8.14 g/m*3 8.4 C 0 km/h
1087 27-10-2019 18:30:00 8.3 C 8.09 g/m*3 8.3 C 0 km/h
1088 27-10-2019 18:35:00 8.3 C 8.09 g/m*3 8.3 C 0 km/h
1089 27-10-2019 18:40:00 8.3 C 8.09 g/m*3 8.3 C 0 km/h
1090 27-10-2019 18:45:00 8.3 C 8.09 g/m*3 8.3 C 0 km/h
1091 27-10-2019 18:50:00 8.3 C 8.09 g/m*3 8.3 C 0 km/h
1092 27-10-2019 18:55:00 8.3 C 8.09 g/m*3 8.3 C 0 km/h
1093 27-10-2019 19:00:00 8.3 C 8.09 g/m*3 8.3 C 0 km/h
1094 27-10-2019 19:05:00 8.3 C 8.09 g/m*3 8.3 C 0 km/h
1095 27-10-2019 19:10:00 8.3 C 8.09 g/m*3 8.3 C 0 km/h
1096 27-10-2019 19:15:00 8.3 C 8.09 g/m*3 8.3 C 0 km/h
1097 27-10-2019 19:20:00 8.3 C 8.09 g/m*3 8.3 C 0 km/h
1098 27-10-2019 19:25:00 8.3 C 8.09 g/m*3 8.3 C 0 km/h
1099 27-10-2019 19:30:00 8.3 C 8.09 g/m*3 8.3 C 0 km/h
1100 27-10-2019 19:35:00 8.3 C 8.09 g/m*3 8.3 C 0 km/h
Sensor: Nr:Datum:Temp:Abs-Feuchte:Windchill:Wind:
Aussen-T/F 1101 27-10-2019 19:40:00 8.3 C 8.09 g/m*3 8.3 C 0 km/h
1102 27-10-2019 19:45:00 8.3 C 8.09 g/m*3 8.3 C 0 km/h
1103 27-10-2019 19:50:00 8.2 C 8.04 g/m*3 8.2 C 0 km/h
1104 27-10-2019 19:55:00 8.1 C 7.99 g/m*3 8.1 C 0 km/h
1105 27-10-2019 20:00:00 8.1 C 7.99 g/m*3 8.1 C 0 km/h
1106 27-10-2019 20:05:00 7.9 C 7.89 g/m*3 7.9 C 0 km/h
1107 27-10-2019 20:10:00 7.8 C 7.83 g/m*3 7.8 C 0 km/h
1108 27-10-2019 20:15:00 7.7 C 7.78 g/m*3 7.7 C 0 km/h
1109 27-10-2019 20:20:00 7.6 C 7.73 g/m*3 7.6 C 0 km/h
1110 27-10-2019 20:25:00 7.5 C 7.68 g/m*3 7.5 C 0 km/h
1111 27-10-2019 20:30:00 7.4 C 7.63 g/m*3 7.4 C 0 km/h
1112 27-10-2019 20:35:00 7.3 C 7.58 g/m*3 7.3 C 0 km/h
1113 27-10-2019 20:40:00 7.3 C 7.58 g/m*3 7.3 C 0 km/h
1114 27-10-2019 20:45:00 7.2 C 7.54 g/m*3 7.2 C 0 km/h
1115 27-10-2019 20:50:00 7.2 C 7.54 g/m*3 7.2 C 0 km/h
1116 27-10-2019 20:55:00 7.1 C 7.49 g/m*3 7.1 C 0 km/h
1117 27-10-2019 21:00:00 7.1 C 7.49 g/m*3 7.1 C 0 km/h
1118 27-10-2019 21:05:00 7.1 C 7.49 g/m*3 7.1 C 0 km/h
1119 27-10-2019 21:10:00 7.1 C 7.49 g/m*3 7.1 C 0 km/h
1120 27-10-2019 21:15:00 7.1 C 7.49 g/m*3 7.1 C 0 km/h
1121 27-10-2019 21:20:00 7 C 7.44 g/m*3 7 C 1.6 km/h
1122 27-10-2019 21:25:00 7 C 7.44 g/m*3 7 C 1.6 km/h
1123 27-10-2019 21:30:00 6.9 C 7.39 g/m*3 6.9 C 0 km/h
1124 27-10-2019 21:35:00 6.9 C 7.39 g/m*3 6.9 C 0 km/h
1125 27-10-2019 21:40:00 6.8 C 7.34 g/m*3 6.8 C 0 km/h
Sensor: Nr:Datum:Temp:Abs-Feuchte:Windchill:Wind:
Aussen-T/F 1126 27-10-2019 21:45:00 6.7 C 7.29 g/m*3 6.7 C 1.6 km/h
1127 27-10-2019 21:50:00 6.7 C 7.29 g/m*3 6.7 C 0 km/h
1128 27-10-2019 21:55:00 6.6 C 7.25 g/m*3 6.6 C 0 km/h
1129 27-10-2019 22:00:00 6.5 C 7.2 g/m*3 6.5 C 0 km/h
1130 27-10-2019 22:05:00 6.4 C 7.15 g/m*3 6.4 C 0 km/h
1131 27-10-2019 22:10:00 6.3 C 7.11 g/m*3 6.3 C 0 km/h
1132 27-10-2019 22:15:00 6.1 C 7.01 g/m*3 6.1 C 0 km/h
1133 27-10-2019 22:20:00 6 C 6.97 g/m*3 6 C 0 km/h
1134 27-10-2019 22:25:00 5.9 C 6.92 g/m*3 5.9 C 0 km/h
1135 27-10-2019 22:30:00 5.8 C 6.88 g/m*3 5.8 C 0 km/h
1136 27-10-2019 22:35:00 5.8 C 6.88 g/m*3 5.8 C 0 km/h
1137 27-10-2019 22:40:00 5.7 C 6.83 g/m*3 5.7 C 0 km/h
1138 27-10-2019 22:45:00 5.6 C 6.79 g/m*3 5.6 C 0 km/h
1139 27-10-2019 22:50:00 5.6 C 6.79 g/m*3 5.6 C 0 km/h
1140 27-10-2019 22:55:00 5.4 C 6.7 g/m*3 5.4 C 0 km/h
1141 27-10-2019 23:00:00 5.3 C 6.65 g/m*3 5.3 C 0 km/h
1142 27-10-2019 23:05:00 5.3 C 6.65 g/m*3 5.3 C 0 km/h
1143 27-10-2019 23:10:00 5.2 C 6.61 g/m*3 5.2 C 0 km/h
1144 27-10-2019 23:15:00 5.2 C 6.61 g/m*3 5.2 C 0 km/h
1145 27-10-2019 23:20:00 5.1 C 6.57 g/m*3 5.1 C 0 km/h
1146 27-10-2019 23:25:00 5 C 6.52 g/m*3 5 C 0 km/h
1147 27-10-2019 23:30:00 5 C 6.52 g/m*3 5 C 0 km/h
1148 27-10-2019 23:35:00 4.9 C 6.48 g/m*3 4.9 C 3.2 km/h
1149 27-10-2019 23:40:00 5.1 C 6.63 g/m*3 5.1 C 0 km/h
1150 27-10-2019 23:45:00 5.1 C 6.63 g/m*3 5.1 C 0 km/h
Sensor: Nr:Datum:Temp:Abs-Feuchte:Windchill:Wind:
Aussen-T/F 1151 27-10-2019 23:50:00 5.1 C 6.63 g/m*3 5.1 C 0 km/h
1152 27-10-2019 23:55:00 5.2 C 6.68 g/m*3 5.2 C 0 km/h
1153 28-10-2019 00:00:00 5.2 C 6.68 g/m*3 5.2 C 0 km/h
1154 28-10-2019 00:05:00 5.2 C 6.68 g/m*3 5.2 C 1.6 km/h
1155 28-10-2019 00:10:00 5.2 C 6.68 g/m*3 5.2 C 0 km/h
1156 28-10-2019 00:15:00 5.3 C 6.72 g/m*3 5.3 C 0 km/h
1157 28-10-2019 00:20:00 5.3 C 6.72 g/m*3 5.3 C 0 km/h
1158 28-10-2019 00:25:00 5.3 C 6.72 g/m*3 5.3 C 0 km/h
1159 28-10-2019 00:30:00 5.3 C 6.72 g/m*3 5.3 C 0 km/h
1160 28-10-2019 00:35:00 5.4 C 6.77 g/m*3 5.4 C 0 km/h
1161 28-10-2019 00:40:00 5.4 C 6.77 g/m*3 5.4 C 0 km/h
1162 28-10-2019 00:45:00 5.4 C 6.77 g/m*3 5.4 C 0 km/h
1163 28-10-2019 00:50:00 5.4 C 6.77 g/m*3 5.4 C 0 km/h
1164 28-10-2019 00:55:00 5.5 C 6.81 g/m*3 5.5 C 0 km/h
1165 28-10-2019 01:00:00 5.6 C 6.86 g/m*3 5.6 C 0 km/h
1166 28-10-2019 01:05:00 5.6 C 6.86 g/m*3 5.6 C 0 km/h
1167 28-10-2019 01:10:00 5.7 C 6.9 g/m*3 5.7 C 0 km/h
1168 28-10-2019 01:15:00 5.7 C 6.9 g/m*3 5.7 C 0 km/h
1169 28-10-2019 01:20:00 5.8 C 6.95 g/m*3 5.8 C 0 km/h
1170 28-10-2019 01:25:00 5.8 C 6.95 g/m*3 5.8 C 0 km/h
1171 28-10-2019 01:30:00 5.9 C 6.99 g/m*3 5.9 C 0 km/h
1172 28-10-2019 01:35:00 5.9 C 6.99 g/m*3 5.9 C 0 km/h
1173 28-10-2019 01:40:00 5.9 C 6.99 g/m*3 5.9 C 0 km/h
1174 28-10-2019 01:45:00 5.9 C 6.99 g/m*3 5.9 C 0 km/h
1175 28-10-2019 01:50:00 5.9 C 6.99 g/m*3 5.9 C 0 km/h
Sensor: Nr:Datum:Temp:Abs-Feuchte:Windchill:Wind:
Aussen-T/F 1176 28-10-2019 01:55:00 5.9 C 6.99 g/m*3 5.9 C 1.6 km/h
1177 28-10-2019 02:00:00 5.9 C 6.99 g/m*3 5.9 C 0 km/h
1178 28-10-2019 02:05:00 5.9 C 6.99 g/m*3 5.9 C 0 km/h
1179 28-10-2019 02:10:00 5.9 C 6.99 g/m*3 5.9 C 0 km/h
1180 28-10-2019 02:15:00 5.8 C 6.95 g/m*3 5.8 C 0 km/h
1181 28-10-2019 02:20:00 5.8 C 6.95 g/m*3 5.8 C 0 km/h
1182 28-10-2019 02:25:00 5.7 C 6.9 g/m*3 5.7 C 0 km/h
1183 28-10-2019 02:30:00 5.5 C 6.81 g/m*3 5.5 C 0 km/h
1184 28-10-2019 02:35:00 5.4 C 6.77 g/m*3 5.4 C 0 km/h
1185 28-10-2019 02:40:00 5.3 C 6.72 g/m*3 5.3 C 0 km/h
1186 28-10-2019 02:45:00 5.3 C 6.72 g/m*3 5.3 C 0 km/h
1187 28-10-2019 02:50:00 5.3 C 6.72 g/m*3 5.3 C 0 km/h
1188 28-10-2019 02:55:00 5.3 C 6.72 g/m*3 5.3 C 0 km/h
1189 28-10-2019 03:00:00 5.3 C 6.72 g/m*3 5.3 C 0 km/h
1190 28-10-2019 03:05:00 5.4 C 6.77 g/m*3 5.4 C 0 km/h
1191 28-10-2019 03:10:00 5.5 C 6.81 g/m*3 5.5 C 1.6 km/h
1192 28-10-2019 03:15:00 5.6 C 6.86 g/m*3 5.6 C 0 km/h
1193 28-10-2019 03:20:00 5.5 C 6.81 g/m*3 5.5 C 0 km/h
1194 28-10-2019 03:25:00 5.5 C 6.81 g/m*3 5.5 C 0 km/h
1195 28-10-2019 03:30:00 5.4 C 6.77 g/m*3 5.4 C 0 km/h
1196 28-10-2019 03:35:00 5.5 C 6.81 g/m*3 5.5 C 0 km/h
1197 28-10-2019 03:40:00 5.4 C 6.77 g/m*3 5.4 C 1.6 km/h
1198 28-10-2019 03:45:00 5.4 C 6.77 g/m*3 5.4 C 0 km/h
1199 28-10-2019 03:50:00 5.4 C 6.77 g/m*3 5.4 C 0 km/h
1200 28-10-2019 03:55:00 5.4 C 6.77 g/m*3 5.4 C 0 km/h
Sensor: Nr:Datum:Temp:Abs-Feuchte:Windchill:Wind:
Aussen-T/F 1201 28-10-2019 04:00:00 5.4 C 6.77 g/m*3 5.4 C 0 km/h
1202 28-10-2019 04:05:00 5.3 C 6.72 g/m*3 5.3 C 0 km/h
1203 28-10-2019 04:10:00 5.3 C 6.72 g/m*3 5.3 C 0 km/h
1204 28-10-2019 04:15:00 5.3 C 6.72 g/m*3 5.3 C 0 km/h
1205 28-10-2019 04:20:00 5.3 C 6.72 g/m*3 5.3 C 0 km/h
1206 28-10-2019 04:25:00 5.3 C 6.72 g/m*3 5.3 C 0 km/h
1207 28-10-2019 04:30:00 5.3 C 6.72 g/m*3 5.3 C 0 km/h
1208 28-10-2019 04:35:00 5.3 C 6.72 g/m*3 5.3 C 0 km/h
1209 28-10-2019 04:40:00 5.3 C 6.72 g/m*3 5.3 C 0 km/h
1210 28-10-2019 04:45:00 5.3 C 6.72 g/m*3 5.3 C 0 km/h
1211 28-10-2019 04:50:00 5.3 C 6.72 g/m*3 5.3 C 0 km/h
1212 28-10-2019 04:55:00 5.3 C 6.72 g/m*3 5.3 C 0 km/h
1213 28-10-2019 05:00:00 5.2 C 6.68 g/m*3 5.2 C 0 km/h
1214 28-10-2019 05:05:00 5.2 C 6.68 g/m*3 5.2 C 0 km/h
1215 28-10-2019 05:10:00 5.2 C 6.68 g/m*3 5.2 C 0 km/h
1216 28-10-2019 05:15:00 5.2 C 6.68 g/m*3 5.2 C 0 km/h
1217 28-10-2019 05:20:00 5.2 C 6.68 g/m*3 5.2 C 0 km/h
1218 28-10-2019 05:25:00 5.2 C 6.68 g/m*3 5.2 C 0 km/h
1219 28-10-2019 05:30:00 5.2 C 6.68 g/m*3 5.2 C 0 km/h
1220 28-10-2019 05:35:00 5.2 C 6.68 g/m*3 5.2 C 0 km/h
1221 28-10-2019 05:40:00 5.2 C 6.68 g/m*3 5.2 C 0 km/h
1222 28-10-2019 05:45:00 5.2 C 6.68 g/m*3 5.2 C 0 km/h
1223 28-10-2019 05:50:00 5.2 C 6.68 g/m*3 5.2 C 0 km/h
1224 28-10-2019 05:55:00 5.2 C 6.68 g/m*3 5.2 C 0 km/h
1225 28-10-2019 06:00:00 5.2 C 6.68 g/m*3 5.2 C 0 km/h
Sensor: Nr:Datum:Temp:Abs-Feuchte:Windchill:Wind:
Aussen-T/F 1226 28-10-2019 06:05:00 5.2 C 6.68 g/m*3 5.2 C 0 km/h
1227 28-10-2019 06:10:00 5.2 C 6.68 g/m*3 5.2 C 0 km/h
1228 28-10-2019 06:15:00 5.1 C 6.63 g/m*3 5.1 C 0 km/h
1229 28-10-2019 06:20:00 5.1 C 6.63 g/m*3 5.1 C 0 km/h
1230 28-10-2019 06:25:00 5.1 C 6.63 g/m*3 5.1 C 0 km/h
1231 28-10-2019 06:30:00 5.1 C 6.63 g/m*3 5.1 C 0 km/h
1232 28-10-2019 06:35:00 5.1 C 6.63 g/m*3 5.1 C 0 km/h
1233 28-10-2019 06:40:00 5.1 C 6.63 g/m*3 5.1 C 0 km/h
1234 28-10-2019 06:45:00 5.1 C 6.63 g/m*3 5.1 C 0 km/h
1235 28-10-2019 06:50:00 5.1 C 6.63 g/m*3 5.1 C 0 km/h
1236 28-10-2019 06:55:00 5.2 C 6.68 g/m*3 5.2 C 0 km/h
1237 28-10-2019 07:00:00 5.2 C 6.68 g/m*3 5.2 C 0 km/h
1238 28-10-2019 07:05:00 5.2 C 6.68 g/m*3 5.2 C 0 km/h
1239 28-10-2019 07:10:00 5.2 C 6.68 g/m*3 5.2 C 0 km/h
1240 28-10-2019 07:15:00 5.2 C 6.68 g/m*3 5.2 C 1.6 km/h
1241 28-10-2019 07:20:00 5.3 C 6.72 g/m*3 5.3 C 0 km/h
1242 28-10-2019 07:25:00 5.3 C 6.72 g/m*3 5.3 C 1.6 km/h
1243 28-10-2019 07:30:00 5.3 C 6.72 g/m*3 5.3 C 3.2 km/h
1244 28-10-2019 07:35:00 5.3 C 6.72 g/m*3 5.3 C 1.6 km/h
1245 28-10-2019 07:40:00 5.3 C 6.72 g/m*3 5.3 C 1.6 km/h
1246 28-10-2019 07:45:00 5.3 C 6.72 g/m*3 5.3 C 0 km/h
1247 28-10-2019 07:50:00 5.3 C 6.72 g/m*3 5.3 C 0 km/h
1248 28-10-2019 07:55:00 5.3 C 6.72 g/m*3 5.3 C 0 km/h
1249 28-10-2019 08:00:00 5.4 C 6.77 g/m*3 5.4 C 1.6 km/h
1250 28-10-2019 08:05:00 5.4 C 6.84 g/m*3 5.4 C 1.6 km/h
Sensor: Nr:Datum:Temp:Abs-Feuchte:Windchill:Wind:
Aussen-T/F 1251 28-10-2019 08:10:00 5.4 C 6.84 g/m*3 5.4 C 0 km/h
1252 28-10-2019 08:15:00 5.4 C 6.77 g/m*3 5.4 C 1.6 km/h
1253 28-10-2019 08:20:00 5.4 C 6.77 g/m*3 5.4 C 0 km/h
1254 28-10-2019 08:25:00 5.5 C 6.81 g/m*3 5.5 C 1.6 km/h
1255 28-10-2019 08:30:00 5.6 C 6.86 g/m*3 4.29 C 6.4 km/h
1256 28-10-2019 08:35:00 5.6 C 6.86 g/m*3 5.6 C 3.2 km/h
1257 28-10-2019 08:40:00 5.6 C 6.86 g/m*3 5.6 C 4.8 km/h
1258 28-10-2019 08:45:00 5.6 C 6.86 g/m*3 5.6 C 0 km/h
1259 28-10-2019 08:50:00 5.6 C 6.93 g/m*3 5.6 C 1.6 km/h
1260 28-10-2019 08:55:00 5.7 C 6.97 g/m*3 5.7 C 1.6 km/h
1261 28-10-2019 09:00:00 5.7 C 6.97 g/m*3 5.7 C 3.2 km/h
1262 28-10-2019 09:05:00 5.7 C 6.97 g/m*3 5.7 C 0 km/h
1263 28-10-2019 09:10:00 5.7 C 6.97 g/m*3 5.7 C 0 km/h
1264 28-10-2019 09:15:00 5.7 C 6.97 g/m*3 5.7 C 0 km/h
1265 28-10-2019 09:20:00 5.8 C 7.02 g/m*3 5.8 C 1.6 km/h
1266 28-10-2019 09:25:00 5.8 C 7.02 g/m*3 5.8 C 1.6 km/h
1267 28-10-2019 09:30:00 5.8 C 7.02 g/m*3 5.8 C 1.6 km/h
1268 28-10-2019 09:35:00 5.8 C 7.02 g/m*3 5.8 C 1.6 km/h
1269 28-10-2019 09:40:00 5.8 C 7.02 g/m*3 5.8 C 1.6 km/h
1270 28-10-2019 09:45:00 5.9 C 7.07 g/m*3 5.9 C 1.6 km/h
1271 28-10-2019 09:50:00 5.9 C 7.07 g/m*3 5.9 C 1.6 km/h
1272 28-10-2019 09:55:00 6 C 7.11 g/m*3 6 C 0 km/h
1273 28-10-2019 10:00:00 6 C 7.11 g/m*3 6 C 1.6 km/h
1274 28-10-2019 10:05:00 6 C 7.11 g/m*3 6 C 0 km/h
1275 28-10-2019 10:10:00 6 C 7.11 g/m*3 6 C 1.6 km/h
Sensor: Nr:Datum:Temp:Abs-Feuchte:Windchill:Wind:
Aussen-T/F 1276 28-10-2019 10:15:00 6.2 C 7.21 g/m*3 6.2 C 3.2 km/h
1277 28-10-2019 10:20:00 6.2 C 7.21 g/m*3 6.2 C 1.6 km/h
1278 28-10-2019 10:25:00 6.2 C 7.21 g/m*3 6.2 C 1.6 km/h
1279 28-10-2019 10:30:00 6.2 C 7.21 g/m*3 6.2 C 1.6 km/h
1280 28-10-2019 10:35:00 6.2 C 7.21 g/m*3 6.2 C 3.2 km/h
1281 28-10-2019 10:40:00 6.3 C 7.25 g/m*3 6.3 C 3.2 km/h
1282 28-10-2019 10:45:00 6.3 C 7.25 g/m*3 6.3 C 3.2 km/h
1283 28-10-2019 10:50:00 6.3 C 7.25 g/m*3 6.3 C 3.2 km/h
1284 28-10-2019 10:55:00 6.3 C 7.25 g/m*3 6.3 C 3.2 km/h
1285 28-10-2019 11:00:00 6.3 C 7.25 g/m*3 6.3 C 1.6 km/h
1286 28-10-2019 11:05:00 6.3 C 7.25 g/m*3 6.3 C 1.6 km/h
1287 28-10-2019 11:10:00 6.3 C 7.25 g/m*3 6.3 C 3.2 km/h
1288 28-10-2019 11:15:00 6.4 C 7.3 g/m*3 6.4 C 1.6 km/h
1289 28-10-2019 11:20:00 6.4 C 7.3 g/m*3 6.4 C 0 km/h
1290 28-10-2019 11:25:00 6.4 C 7.3 g/m*3 6.4 C 3.2 km/h
1291 28-10-2019 11:30:00 6.4 C 7.3 g/m*3 6.4 C 3.2 km/h
1292 28-10-2019 11:35:00 6.4 C 7.3 g/m*3 6.4 C 0 km/h
1293 28-10-2019 11:40:00 6.4 C 7.3 g/m*3 6.4 C 0 km/h
1294 28-10-2019 11:45:00 6.4 C 7.3 g/m*3 6.4 C 1.6 km/h
1295 28-10-2019 11:50:00 6.4 C 7.3 g/m*3 6.4 C 1.6 km/h
1296 28-10-2019 11:55:00 6.5 C 7.35 g/m*3 6.5 C 1.6 km/h
1297 28-10-2019 12:00:00 6.5 C 7.35 g/m*3 5.33 C 6.4 km/h
1298 28-10-2019 12:05:00 6.5 C 7.35 g/m*3 6.5 C 4.8 km/h
1299 28-10-2019 12:10:00 6.6 C 7.4 g/m*3 6.6 C 3.2 km/h
1300 28-10-2019 12:15:00 6.6 C 7.4 g/m*3 6.6 C 4.8 km/h
Sensor: Nr:Datum:Temp:Abs-Feuchte:Windchill:Wind:
Aussen-T/F 1301 28-10-2019 12:20:00 6.6 C 7.4 g/m*3 6.6 C 4.8 km/h
1302 28-10-2019 12:25:00 6.5 C 7.35 g/m*3 6.5 C 4.8 km/h
1303 28-10-2019 12:30:00 6.4 C 7.3 g/m*3 5.21 C 6.4 km/h
1304 28-10-2019 12:35:00 6.5 C 7.35 g/m*3 6.5 C 4.8 km/h
1305 28-10-2019 12:40:00 6.5 C 7.35 g/m*3 5.33 C 6.4 km/h
1306 28-10-2019 12:45:00 6.5 C 7.27 g/m*3 4.87 C 8.1 km/h
1307 28-10-2019 12:50:00 6.4 C 7.23 g/m*3 4.39 C 9.7 km/h
1308 28-10-2019 12:55:00 6.4 C 7.23 g/m*3 5.21 C 6.4 km/h
1309 28-10-2019 13:00:00 6.5 C 7.27 g/m*3 6.5 C 4.8 km/h
1310 28-10-2019 13:05:00 6.5 C 7.27 g/m*3 6.5 C 3.2 km/h
1311 28-10-2019 13:10:00 6.6 C 7.32 g/m*3 6.6 C 3.2 km/h
1312 28-10-2019 13:15:00 6.6 C 7.32 g/m*3 6.6 C 4.8 km/h
1313 28-10-2019 13:20:00 6.6 C 7.32 g/m*3 6.6 C 0 km/h
1314 28-10-2019 13:25:00 6.6 C 7.32 g/m*3 6.6 C 0 km/h
1315 28-10-2019 13:30:00 6.8 C 7.42 g/m*3 6.8 C 1.6 km/h
1316 28-10-2019 13:35:00 6.9 C 7.47 g/m*3 6.9 C 1.6 km/h
1317 28-10-2019 13:40:00 6.9 C 7.47 g/m*3 6.9 C 0 km/h
1318 28-10-2019 13:45:00 6.9 C 7.47 g/m*3 6.9 C 1.6 km/h
1319 28-10-2019 13:50:00 6.9 C 7.47 g/m*3 6.9 C 1.6 km/h
1320 28-10-2019 13:55:00 6.9 C 7.47 g/m*3 6.9 C 0 km/h
1321 28-10-2019 14:00:00 7.1 C 7.57 g/m*3 7.1 C 0 km/h
1322 28-10-2019 14:05:00 7.1 C 7.57 g/m*3 7.1 C 0 km/h
1323 28-10-2019 14:10:00 7.2 C 7.61 g/m*3 7.2 C 0 km/h
1324 28-10-2019 14:15:00 7.3 C 7.66 g/m*3 7.3 C 0 km/h
1325 28-10-2019 14:20:00 7.4 C 7.71 g/m*3 7.4 C 0 km/h
Sensor: Nr:Datum:Temp:Abs-Feuchte:Windchill:Wind:
Aussen-T/F 1326 28-10-2019 14:25:00 7.4 C 7.71 g/m*3 7.4 C 0 km/h
1327 28-10-2019 14:30:00 7.4 C 7.71 g/m*3 7.4 C 0 km/h
1328 28-10-2019 14:35:00 7.4 C 7.71 g/m*3 7.4 C 0 km/h
1329 28-10-2019 14:40:00 7.5 C 7.68 g/m*3 7.5 C 0 km/h
1330 28-10-2019 14:45:00 7.6 C 7.73 g/m*3 7.6 C 0 km/h
1331 28-10-2019 14:50:00 7.6 C 7.73 g/m*3 7.6 C 0 km/h
1332 28-10-2019 14:55:00 7.7 C 7.78 g/m*3 7.7 C 1.6 km/h
1333 28-10-2019 15:00:00 7.8 C 7.83 g/m*3 7.8 C 0 km/h
1334 28-10-2019 15:05:00 7.8 C 7.83 g/m*3 7.8 C 0 km/h
1335 28-10-2019 15:10:00 7.9 C 7.89 g/m*3 7.9 C 0 km/h
1336 28-10-2019 15:15:00 8 C 7.94 g/m*3 8 C 0 km/h
1337 28-10-2019 15:20:00 8.1 C 7.9 g/m*3 8.1 C 1.6 km/h
1338 28-10-2019 15:25:00 8 C 7.85 g/m*3 8 C 0 km/h
1339 28-10-2019 15:30:00 8 C 7.85 g/m*3 8 C 0 km/h
1340 28-10-2019 15:35:00 8 C 7.77 g/m*3 8 C 0 km/h
1341 28-10-2019 15:40:00 8.1 C 7.82 g/m*3 8.1 C 0 km/h
1342 28-10-2019 15:45:00 8.1 C 7.9 g/m*3 8.1 C 0 km/h
1343 28-10-2019 15:50:00 8.2 C 7.96 g/m*3 8.2 C 0 km/h
1344 28-10-2019 15:55:00 8.2 C 7.96 g/m*3 8.2 C 0 km/h
1345 28-10-2019 16:00:00 8.2 C 7.96 g/m*3 8.2 C 0 km/h
1346 28-10-2019 16:05:00 8.2 C 7.96 g/m*3 8.2 C 0 km/h
1347 28-10-2019 16:10:00 8.2 C 7.96 g/m*3 8.2 C 0 km/h
1348 28-10-2019 16:15:00 8.1 C 7.9 g/m*3 8.1 C 0 km/h
1349 28-10-2019 16:20:00 7.9 C 7.8 g/m*3 7.9 C 0 km/h
1350 28-10-2019 16:25:00 7.8 C 7.75 g/m*3 7.8 C 0 km/h
Sensor: Nr:Datum:Temp:Abs-Feuchte:Windchill:Wind:
Aussen-T/F 1351 28-10-2019 16:30:00 7.7 C 7.62 g/m*3 7.7 C 0 km/h
1352 28-10-2019 16:35:00 7.7 C 7.7 g/m*3 7.7 C 0 km/h
1353 28-10-2019 16:40:00 7.6 C 7.65 g/m*3 7.6 C 0 km/h
1354 28-10-2019 16:45:00 7.5 C 7.6 g/m*3 7.5 C 0 km/h
1355 28-10-2019 16:50:00 7.4 C 7.55 g/m*3 7.4 C 0 km/h
1356 28-10-2019 16:55:00 7.2 C 7.46 g/m*3 7.2 C 0 km/h
1357 28-10-2019 17:00:00 7.1 C 7.33 g/m*3 7.1 C 0 km/h
1358 28-10-2019 17:05:00 7 C 7.36 g/m*3 7 C 0 km/h
1359 28-10-2019 17:10:00 6.9 C 7.31 g/m*3 6.9 C 0 km/h
1360 28-10-2019 17:15:00 6.9 C 7.31 g/m*3 6.9 C 0 km/h
1361 28-10-2019 17:20:00 6.9 C 7.31 g/m*3 6.9 C 0 km/h
1362 28-10-2019 17:25:00 6.9 C 7.31 g/m*3 6.9 C 0 km/h
1363 28-10-2019 17:30:00 6.9 C 7.39 g/m*3 6.9 C 0 km/h
1364 28-10-2019 17:35:00 7 C 7.44 g/m*3 7 C 0 km/h
1365 28-10-2019 17:40:00 7.1 C 7.49 g/m*3 7.1 C 0 km/h
1366 28-10-2019 17:45:00 7.1 C 7.49 g/m*3 7.1 C 0 km/h
1367 28-10-2019 17:50:00 7.1 C 7.49 g/m*3 7.1 C 0 km/h
1368 28-10-2019 17:55:00 7.1 C 7.49 g/m*3 7.1 C 0 km/h
1369 28-10-2019 18:00:00 7.1 C 7.49 g/m*3 7.1 C 0 km/h
1370 28-10-2019 18:05:00 7.1 C 7.49 g/m*3 7.1 C 0 km/h
1371 28-10-2019 18:10:00 7.1 C 7.49 g/m*3 7.1 C 0 km/h
1372 28-10-2019 18:15:00 7.2 C 7.54 g/m*3 7.2 C 0 km/h
1373 28-10-2019 18:20:00 7.2 C 7.54 g/m*3 7.2 C 0 km/h
1374 28-10-2019 18:25:00 7.2 C 7.54 g/m*3 7.2 C 0 km/h
1375 28-10-2019 18:30:00 7.2 C 7.54 g/m*3 7.2 C 0 km/h
Sensor: Nr:Datum:Temp:Abs-Feuchte:Windchill:Wind:
Aussen-T/F 1376 28-10-2019 18:35:00 7.2 C 7.54 g/m*3 7.2 C 0 km/h
1377 28-10-2019 18:40:00 7.2 C 7.54 g/m*3 7.2 C 0 km/h
1378 28-10-2019 18:45:00 7.2 C 7.54 g/m*3 7.2 C 0 km/h
1379 28-10-2019 18:50:00 7.2 C 7.54 g/m*3 7.2 C 0 km/h
1380 28-10-2019 18:55:00 7.2 C 7.54 g/m*3 7.2 C 0 km/h
1381 28-10-2019 19:00:00 7.2 C 7.54 g/m*3 7.2 C 0 km/h
1382 28-10-2019 19:05:00 7.2 C 7.54 g/m*3 7.2 C 0 km/h
1383 28-10-2019 19:10:00 7.2 C 7.54 g/m*3 7.2 C 0 km/h
1384 28-10-2019 19:15:00 7.2 C 7.54 g/m*3 7.2 C 0 km/h
1385 28-10-2019 19:20:00 7.2 C 7.54 g/m*3 7.2 C 0 km/h
1386 28-10-2019 19:25:00 7.2 C 7.54 g/m*3 7.2 C 0 km/h
1387 28-10-2019 19:30:00 7.2 C 7.54 g/m*3 7.2 C 0 km/h
1388 28-10-2019 19:35:00 7.2 C 7.54 g/m*3 7.2 C 0 km/h
1389 28-10-2019 19:40:00 7.2 C 7.54 g/m*3 7.2 C 0 km/h
1390 28-10-2019 19:45:00 7.1 C 7.49 g/m*3 7.1 C 0 km/h
1391 28-10-2019 19:50:00 7.1 C 7.49 g/m*3 7.1 C 0 km/h
1392 28-10-2019 19:55:00 6.9 C 7.39 g/m*3 6.9 C 0 km/h
1393 28-10-2019 20:00:00 6.9 C 7.39 g/m*3 6.9 C 0 km/h
1394 28-10-2019 20:05:00 6.9 C 7.39 g/m*3 6.9 C 0 km/h
1395 28-10-2019 20:10:00 6.9 C 7.39 g/m*3 6.9 C 0 km/h
1396 28-10-2019 20:15:00 6.9 C 7.39 g/m*3 6.9 C 0 km/h
1397 28-10-2019 20:20:00 6.9 C 7.39 g/m*3 6.9 C 0 km/h
1398 28-10-2019 20:25:00 6.9 C 7.47 g/m*3 6.9 C 0 km/h
1399 28-10-2019 20:30:00 7 C 7.44 g/m*3 7 C 0 km/h
1400 28-10-2019 20:35:00 7.1 C 7.57 g/m*3 7.1 C 0 km/h
Sensor: Nr:Datum:Temp:Abs-Feuchte:Windchill:Wind:
Aussen-T/F 1401 28-10-2019 20:40:00 7.1 C 7.57 g/m*3 7.1 C 0 km/h
1402 28-10-2019 20:45:00 7.1 C 7.57 g/m*3 7.1 C 0 km/h
1403 28-10-2019 20:50:00 7.1 C 7.57 g/m*3 7.1 C 0 km/h
1404 28-10-2019 20:55:00 7.1 C 7.57 g/m*3 7.1 C 0 km/h
1405 28-10-2019 21:00:00 7.1 C 7.57 g/m*3 7.1 C 0 km/h
1406 28-10-2019 21:05:00 7.1 C 7.57 g/m*3 7.1 C 0 km/h
1407 28-10-2019 21:10:00 7.1 C 7.57 g/m*3 7.1 C 0 km/h
1408 28-10-2019 21:15:00 7 C 7.52 g/m*3 7 C 0 km/h
1409 28-10-2019 21:20:00 7 C 7.52 g/m*3 7 C 0 km/h
1410 28-10-2019 21:25:00 6.9 C 7.39 g/m*3 6.9 C 0 km/h
1411 28-10-2019 21:30:00 6.9 C 7.39 g/m*3 6.9 C 0 km/h
1412 28-10-2019 21:35:00 6.9 C 7.39 g/m*3 6.9 C 0 km/h
1413 28-10-2019 21:40:00 6.8 C 7.34 g/m*3 6.8 C 0 km/h
1414 28-10-2019 21:45:00 6.8 C 7.42 g/m*3 6.8 C 0 km/h
1415 28-10-2019 21:50:00 6.8 C 7.42 g/m*3 6.8 C 0 km/h
1416 28-10-2019 21:55:00 6.9 C 7.47 g/m*3 6.9 C 0 km/h
1417 28-10-2019 22:00:00 6.8 C 7.42 g/m*3 6.8 C 0 km/h
1418 28-10-2019 22:05:00 6.8 C 7.42 g/m*3 6.8 C 0 km/h
1419 28-10-2019 22:10:00 6.8 C 7.42 g/m*3 6.8 C 0 km/h
1420 28-10-2019 22:15:00 6.8 C 7.42 g/m*3 6.8 C 0 km/h
1421 28-10-2019 22:20:00 6.8 C 7.42 g/m*3 6.8 C 0 km/h
1422 28-10-2019 22:25:00 6.8 C 7.42 g/m*3 6.8 C 0 km/h
1423 28-10-2019 22:30:00 6.8 C 7.42 g/m*3 6.8 C 1.6 km/h
1424 28-10-2019 22:35:00 6.8 C 7.42 g/m*3 6.8 C 4.8 km/h
1425 28-10-2019 22:40:00 6.8 C 7.42 g/m*3 6.8 C 0 km/h
Sensor: Nr:Datum:Temp:Abs-Feuchte:Windchill:Wind:
Aussen-T/F 1426 28-10-2019 22:45:00 6.8 C 7.42 g/m*3 6.8 C 0 km/h
1427 28-10-2019 22:50:00 6.7 C 7.37 g/m*3 6.7 C 0 km/h
1428 28-10-2019 22:55:00 6.7 C 7.37 g/m*3 6.7 C 0 km/h
1429 28-10-2019 23:00:00 6.7 C 7.37 g/m*3 6.7 C 1.6 km/h
1430 28-10-2019 23:05:00 6.7 C 7.37 g/m*3 6.7 C 4.8 km/h
1431 28-10-2019 23:10:00 6.7 C 7.37 g/m*3 6.7 C 3.2 km/h
1432 28-10-2019 23:15:00 6.7 C 7.37 g/m*3 6.7 C 0 km/h
1433 28-10-2019 23:20:00 6.7 C 7.37 g/m*3 6.7 C 3.2 km/h
1434 28-10-2019 23:25:00 6.7 C 7.29 g/m*3 6.7 C 1.6 km/h
1435 28-10-2019 23:30:00 6.7 C 7.29 g/m*3 6.7 C 0 km/h
1436 28-10-2019 23:35:00 6.7 C 7.29 g/m*3 6.7 C 0 km/h
1437 28-10-2019 23:40:00 6.7 C 7.29 g/m*3 6.7 C 3.2 km/h
1438 28-10-2019 23:45:00 6.7 C 7.29 g/m*3 6.7 C 0 km/h
1439 28-10-2019 23:50:00 6.7 C 7.29 g/m*3 6.7 C 0 km/h
1440 28-10-2019 23:55:00 6.7 C 7.29 g/m*3 6.7 C 3.2 km/h
1441 29-10-2019 00:00:00 6.7 C 7.29 g/m*3 6.7 C 0 km/h
1442 29-10-2019 00:05:00 6.7 C 7.29 g/m*3 6.7 C 3.2 km/h
1443 29-10-2019 00:10:00 6.7 C 7.29 g/m*3 6.7 C 4.8 km/h
1444 29-10-2019 00:15:00 6.7 C 7.29 g/m*3 6.7 C 3.2 km/h
1445 29-10-2019 00:20:00 6.7 C 7.29 g/m*3 6.7 C 1.6 km/h
1446 29-10-2019 00:25:00 6.7 C 7.29 g/m*3 6.7 C 3.2 km/h
1447 29-10-2019 00:30:00 6.7 C 7.29 g/m*3 6.7 C 1.6 km/h
1448 29-10-2019 00:35:00 6.7 C 7.29 g/m*3 6.7 C 0 km/h
1449 29-10-2019 00:40:00 6.7 C 7.29 g/m*3 6.7 C 1.6 km/h
1450 29-10-2019 00:45:00 6.7 C 7.29 g/m*3 6.7 C 1.6 km/h
Sensor: Nr:Datum:Temp:Abs-Feuchte:Windchill:Wind:
Aussen-T/F 1451 29-10-2019 00:50:00 6.6 C 7.25 g/m*3 6.6 C 1.6 km/h
1452 29-10-2019 00:55:00 6.6 C 7.25 g/m*3 5.44 C 6.4 km/h
1453 29-10-2019 01:00:00 6.6 C 7.25 g/m*3 5.44 C 6.4 km/h
1454 29-10-2019 01:05:00 6.6 C 7.25 g/m*3 5.44 C 6.4 km/h
1455 29-10-2019 01:10:00 6.5 C 7.2 g/m*3 6.5 C 3.2 km/h
1456 29-10-2019 01:15:00 6.5 C 7.2 g/m*3 6.5 C 3.2 km/h
1457 29-10-2019 01:20:00 6.4 C 7.15 g/m*3 6.4 C 4.8 km/h
1458 29-10-2019 01:25:00 6.4 C 7.15 g/m*3 6.4 C 3.2 km/h
1459 29-10-2019 01:30:00 6.4 C 7.15 g/m*3 6.4 C 4.8 km/h
1460 29-10-2019 01:35:00 6.4 C 7.15 g/m*3 6.4 C 3.2 km/h
1461 29-10-2019 01:40:00 6.3 C 7.11 g/m*3 6.3 C 4.8 km/h
1462 29-10-2019 01:45:00 6.3 C 7.11 g/m*3 6.3 C 1.6 km/h
1463 29-10-2019 01:50:00 6.3 C 7.11 g/m*3 6.3 C 1.6 km/h
1464 29-10-2019 01:55:00 6.3 C 7.11 g/m*3 6.3 C 1.6 km/h
1465 29-10-2019 02:00:00 6.3 C 7.11 g/m*3 6.3 C 0 km/h
1466 29-10-2019 02:05:00 6.3 C 7.11 g/m*3 6.3 C 0 km/h
1467 29-10-2019 02:10:00 6.3 C 7.11 g/m*3 6.3 C 0 km/h
1468 29-10-2019 02:15:00 6.3 C 7.11 g/m*3 6.3 C 0 km/h
1469 29-10-2019 02:20:00 6.3 C 7.11 g/m*3 6.3 C 0 km/h
1470 29-10-2019 02:25:00 6.3 C 7.11 g/m*3 6.3 C 0 km/h
1471 29-10-2019 02:30:00 6.3 C 7.11 g/m*3 6.3 C 0 km/h
1472 29-10-2019 02:35:00 6.3 C 7.11 g/m*3 6.3 C 0 km/h
1473 29-10-2019 02:40:00 6.3 C 7.11 g/m*3 6.3 C 0 km/h
1474 29-10-2019 02:45:00 6.3 C 7.11 g/m*3 6.3 C 0 km/h
1475 29-10-2019 02:50:00 6.3 C 7.11 g/m*3 6.3 C 0 km/h
Sensor: Nr:Datum:Temp:Abs-Feuchte:Windchill:Wind:
Aussen-T/F 1476 29-10-2019 02:55:00 6.3 C 7.11 g/m*3 6.3 C 3.2 km/h
1477 29-10-2019 03:00:00 6.3 C 7.11 g/m*3 6.3 C 3.2 km/h
1478 29-10-2019 03:05:00 6.3 C 7.11 g/m*3 6.3 C 1.6 km/h
1479 29-10-2019 03:10:00 6.3 C 7.11 g/m*3 6.3 C 0 km/h
1480 29-10-2019 03:15:00 6.3 C 7.11 g/m*3 6.3 C 0 km/h
1481 29-10-2019 03:20:00 6.3 C 7.11 g/m*3 6.3 C 0 km/h
1482 29-10-2019 03:25:00 6.3 C 7.11 g/m*3 6.3 C 0 km/h
1483 29-10-2019 03:30:00 6.3 C 7.11 g/m*3 6.3 C 3.2 km/h
1484 29-10-2019 03:35:00 6.3 C 7.11 g/m*3 6.3 C 0 km/h
1485 29-10-2019 03:40:00 6.3 C 7.11 g/m*3 6.3 C 0 km/h
1486 29-10-2019 03:45:00 6.2 C 7.06 g/m*3 6.2 C 1.6 km/h
1487 29-10-2019 03:50:00 6.2 C 7.06 g/m*3 6.2 C 1.6 km/h
1488 29-10-2019 03:55:00 6.2 C 7.06 g/m*3 6.2 C 3.2 km/h
1489 29-10-2019 04:00:00 6.2 C 7.06 g/m*3 6.2 C 3.2 km/h
1490 29-10-2019 04:05:00 6.2 C 7.06 g/m*3 6.2 C 1.6 km/h
1491 29-10-2019 04:10:00 6.2 C 7.06 g/m*3 6.2 C 0 km/h
1492 29-10-2019 04:15:00 6.2 C 7.06 g/m*3 6.2 C 0 km/h
1493 29-10-2019 04:20:00 6.2 C 7.06 g/m*3 6.2 C 4.8 km/h
1494 29-10-2019 04:25:00 6.2 C 7.06 g/m*3 6.2 C 1.6 km/h
1495 29-10-2019 04:30:00 6.2 C 7.06 g/m*3 6.2 C 0 km/h
1496 29-10-2019 04:35:00 6.2 C 7.06 g/m*3 6.2 C 0 km/h
1497 29-10-2019 04:40:00 6.2 C 7.06 g/m*3 6.2 C 0 km/h
1498 29-10-2019 04:45:00 6.2 C 7.06 g/m*3 6.2 C 0 km/h
1499 29-10-2019 04:50:00 6.2 C 7.06 g/m*3 6.2 C 0 km/h
1500 29-10-2019 04:55:00 6.2 C 7.06 g/m*3 6.2 C 0 km/h
Sensor: Nr:Datum:Temp:Abs-Feuchte:Windchill:Wind:
Aussen-T/F 1501 29-10-2019 05:00:00 6.2 C 7.06 g/m*3 6.2 C 0 km/h
1502 29-10-2019 05:05:00 6.2 C 7.06 g/m*3 6.2 C 1.6 km/h
1503 29-10-2019 05:10:00 6.2 C 7.06 g/m*3 6.2 C 1.6 km/h
1504 29-10-2019 05:15:00 6.2 C 7.06 g/m*3 6.2 C 1.6 km/h
1505 29-10-2019 05:20:00 6.2 C 7.06 g/m*3 6.2 C 4.8 km/h
1506 29-10-2019 05:25:00 6.2 C 7.06 g/m*3 6.2 C 4.8 km/h
1507 29-10-2019 05:30:00 6.2 C 7.06 g/m*3 6.2 C 0 km/h
1508 29-10-2019 05:35:00 6.2 C 7.06 g/m*3 6.2 C 0 km/h
1509 29-10-2019 05:40:00 6.2 C 7.06 g/m*3 6.2 C 1.6 km/h
1510 29-10-2019 05:45:00 6.2 C 7.06 g/m*3 6.2 C 1.6 km/h
1511 29-10-2019 05:50:00 6.2 C 7.06 g/m*3 6.2 C 0 km/h
1512 29-10-2019 05:55:00 6.2 C 7.06 g/m*3 6.2 C 0 km/h
1513 29-10-2019 06:00:00 6.2 C 7.06 g/m*3 6.2 C 1.6 km/h
1514 29-10-2019 06:05:00 6.1 C 7.01 g/m*3 6.1 C 0 km/h
1515 29-10-2019 06:10:00 6.1 C 7.01 g/m*3 6.1 C 0 km/h
1516 29-10-2019 06:15:00 6.1 C 7.01 g/m*3 6.1 C 0 km/h
1517 29-10-2019 06:20:00 6.1 C 7.01 g/m*3 6.1 C 0 km/h
1518 29-10-2019 06:25:00 6.1 C 7.01 g/m*3 6.1 C 4.8 km/h
1519 29-10-2019 06:30:00 6.1 C 7.01 g/m*3 6.1 C 1.6 km/h
1520 29-10-2019 06:35:00 6.1 C 6.94 g/m*3 6.1 C 3.2 km/h
1521 29-10-2019 06:40:00 6.1 C 6.94 g/m*3 6.1 C 0 km/h
1522 29-10-2019 06:45:00 6.1 C 7.01 g/m*3 6.1 C 0 km/h
1523 29-10-2019 06:50:00 6.1 C 7.01 g/m*3 6.1 C 1.6 km/h
1524 29-10-2019 06:55:00 6.1 C 6.94 g/m*3 6.1 C 0 km/h
1525 29-10-2019 07:00:00 6.1 C 7.01 g/m*3 6.1 C 0 km/h
Sensor: Nr:Datum:Temp:Abs-Feuchte:Windchill:Wind:
Aussen-T/F 1526 29-10-2019 07:05:00 6 C 6.9 g/m*3 6 C 3.2 km/h
1527 29-10-2019 07:10:00 6 C 6.9 g/m*3 6 C 3.2 km/h
1528 29-10-2019 07:15:00 6 C 6.9 g/m*3 6 C 1.6 km/h
1529 29-10-2019 07:20:00 6 C 6.9 g/m*3 6 C 1.6 km/h
1530 29-10-2019 07:25:00 5.9 C 6.85 g/m*3 5.9 C 0 km/h
1531 29-10-2019 07:30:00 5.9 C 6.85 g/m*3 5.9 C 0 km/h
1532 29-10-2019 07:35:00 5.9 C 6.85 g/m*3 5.9 C 0 km/h
1533 29-10-2019 07:40:00 5.9 C 6.85 g/m*3 5.9 C 0 km/h
1534 29-10-2019 07:45:00 6 C 6.97 g/m*3 6 C 0 km/h
1535 29-10-2019 07:50:00 6 C 6.97 g/m*3 6 C 0 km/h
1536 29-10-2019 07:55:00 6 C 6.97 g/m*3 6 C 0 km/h
1537 29-10-2019 08:00:00 6.1 C 7.01 g/m*3 6.1 C 0 km/h
1538 29-10-2019 08:05:00 6.1 C 7.01 g/m*3 6.1 C 1.6 km/h
1539 29-10-2019 08:10:00 6.1 C 7.01 g/m*3 6.1 C 0 km/h
1540 29-10-2019 08:15:00 6.2 C 7.06 g/m*3 6.2 C 0 km/h
1541 29-10-2019 08:20:00 6.2 C 7.06 g/m*3 6.2 C 0 km/h
1542 29-10-2019 08:25:00 6.3 C 7.11 g/m*3 6.3 C 0 km/h
1543 29-10-2019 08:30:00 6.3 C 7.11 g/m*3 6.3 C 0 km/h
1544 29-10-2019 08:35:00 6.3 C 7.03 g/m*3 6.3 C 3.2 km/h
1545 29-10-2019 08:40:00 6.2 C 6.99 g/m*3 6.2 C 0 km/h
1546 29-10-2019 08:45:00 6.3 C 7.03 g/m*3 6.3 C 1.6 km/h
1547 29-10-2019 08:50:00 6.3 C 7.03 g/m*3 6.3 C 1.6 km/h
1548 29-10-2019 08:55:00 6.3 C 7.03 g/m*3 6.3 C 0 km/h
1549 29-10-2019 09:00:00 6.3 C 7.03 g/m*3 6.3 C 0 km/h
1550 29-10-2019 09:05:00 6.4 C 7.08 g/m*3 6.4 C 0 km/h
Sensor: Nr:Datum:Temp:Abs-Feuchte:Windchill:Wind:
Aussen-T/F 1551 29-10-2019 09:10:00 6.4 C 7.08 g/m*3 6.4 C 0 km/h
1552 29-10-2019 09:15:00 6.5 C 7.12 g/m*3 6.5 C 0 km/h
1553 29-10-2019 09:20:00 6.6 C 7.17 g/m*3 6.6 C 0 km/h
1554 29-10-2019 09:25:00 6.7 C 7.22 g/m*3 6.7 C 0 km/h
1555 29-10-2019 09:30:00 6.7 C 7.22 g/m*3 6.7 C 0 km/h
1556 29-10-2019 09:35:00 6.8 C 7.27 g/m*3 6.8 C 0 km/h
1557 29-10-2019 09:40:00 6.9 C 7.31 g/m*3 6.9 C 0 km/h
1558 29-10-2019 09:45:00 6.9 C 7.24 g/m*3 6.9 C 0 km/h
1559 29-10-2019 09:50:00 7 C 7.28 g/m*3 7 C 0 km/h
1560 29-10-2019 09:55:00 7.1 C 7.33 g/m*3 7.1 C 0 km/h
1561 29-10-2019 10:00:00 7.1 C 7.33 g/m*3 7.1 C 0 km/h
1562 29-10-2019 10:05:00 7.2 C 7.38 g/m*3 7.2 C 0 km/h
1563 29-10-2019 10:10:00 7.3 C 7.43 g/m*3 7.3 C 0 km/h
1564 29-10-2019 10:15:00 7.3 C 7.35 g/m*3 7.3 C 0 km/h
1565 29-10-2019 10:20:00 7.3 C 7.27 g/m*3 7.3 C 0 km/h
1566 29-10-2019 10:25:00 7.4 C 7.4 g/m*3 7.4 C 0 km/h
1567 29-10-2019 10:30:00 7.5 C 7.44 g/m*3 7.5 C 1.6 km/h
1568 29-10-2019 10:35:00 7.6 C 7.41 g/m*3 7.6 C 1.6 km/h
1569 29-10-2019 10:40:00 7.7 C 7.46 g/m*3 7.7 C 1.6 km/h
1570 29-10-2019 10:45:00 7.7 C 7.46 g/m*3 7.7 C 0 km/h
1571 29-10-2019 10:50:00 7.8 C 7.51 g/m*3 7.8 C 1.6 km/h
1572 29-10-2019 10:55:00 7.8 C 7.51 g/m*3 7.8 C 0 km/h
1573 29-10-2019 11:00:00 7.9 C 7.56 g/m*3 7.9 C 0 km/h
1574 29-10-2019 11:05:00 8 C 7.61 g/m*3 8 C 0 km/h
1575 29-10-2019 11:10:00 8.1 C 7.57 g/m*3 8.1 C 0 km/h
Sensor: Nr:Datum:Temp:Abs-Feuchte:Windchill:Wind:
Aussen-T/F 1576 29-10-2019 11:15:00 8.1 C 7.57 g/m*3 8.1 C 0 km/h
1577 29-10-2019 11:20:00 8.2 C 7.62 g/m*3 8.2 C 0 km/h
1578 29-10-2019 11:25:00 8.2 C 7.54 g/m*3 8.2 C 0 km/h
1579 29-10-2019 11:30:00 8.2 C 7.54 g/m*3 8.2 C 0 km/h
1580 29-10-2019 11:35:00 8.3 C 7.59 g/m*3 8.3 C 0 km/h
1581 29-10-2019 11:40:00 8.3 C 7.59 g/m*3 8.3 C 0 km/h
1582 29-10-2019 11:45:00 8.4 C 7.63 g/m*3 8.4 C 0 km/h
1583 29-10-2019 11:50:00 8.5 C 7.68 g/m*3 8.5 C 0 km/h
1584 29-10-2019 11:55:00 8.6 C 7.73 g/m*3 8.6 C 0 km/h
1585 29-10-2019 12:00:00 8.7 C 7.7 g/m*3 8.7 C 0 km/h
1586 29-10-2019 12:05:00 8.7 C 7.7 g/m*3 8.7 C 0 km/h
1587 29-10-2019 12:10:00 8.8 C 7.75 g/m*3 8.8 C 0 km/h
1588 29-10-2019 12:15:00 8.8 C 7.66 g/m*3 8.8 C 3.2 km/h
1589 29-10-2019 12:20:00 8.8 C 7.66 g/m*3 8.8 C 0 km/h
1590 29-10-2019 12:25:00 8.8 C 7.66 g/m*3 8.8 C 1.6 km/h
1591 29-10-2019 12:30:00 8.9 C 7.71 g/m*3 8.9 C 1.6 km/h
1592 29-10-2019 12:35:00 9 C 7.85 g/m*3 9 C 0 km/h
1593 29-10-2019 12:40:00 9.1 C 7.81 g/m*3 9.1 C 0 km/h
1594 29-10-2019 12:45:00 9.1 C 7.81 g/m*3 9.1 C 0 km/h
1595 29-10-2019 12:50:00 9.2 C 7.86 g/m*3 9.2 C 1.6 km/h
1596 29-10-2019 12:55:00 9.2 C 7.86 g/m*3 9.2 C 0 km/h
1597 29-10-2019 13:00:00 9.2 C 7.77 g/m*3 9.2 C 1.6 km/h
1598 29-10-2019 13:05:00 9.3 C 7.91 g/m*3 9.3 C 1.6 km/h
1599 29-10-2019 13:10:00 9.3 C 7.82 g/m*3 9.3 C 0 km/h
1600 29-10-2019 13:15:00 9.4 C 7.96 g/m*3 9.4 C 0 km/h
Sensor: Nr:Datum:Temp:Abs-Feuchte:Windchill:Wind:
Aussen-T/F 1601 29-10-2019 13:20:00 9.6 C 8.06 g/m*3 9.6 C 1.6 km/h
1602 29-10-2019 13:25:00 9.7 C 7.93 g/m*3 9.7 C 1.6 km/h
1603 29-10-2019 13:30:00 9.7 C 7.74 g/m*3 9.7 C 4.8 km/h
1604 29-10-2019 13:35:00 9.8 C 7.7 g/m*3 9.8 C 1.6 km/h
1605 29-10-2019 13:40:00 10 C 7.71 g/m*3 10 C 4.8 km/h
1606 29-10-2019 13:45:00 10.2 C 7.71 g/m*3 8.92 C 9.7 km/h
1607 29-10-2019 13:50:00 10.3 C 7.76 g/m*3 8.34 C 14.5 km/h
1608 29-10-2019 13:55:00 10.4 C 7.52 g/m*3 10.4 C 4.8 km/h
1609 29-10-2019 14:00:00 10.3 C 7.47 g/m*3 10.3 C 4.8 km/h
1610 29-10-2019 14:05:00 10.3 C 7.57 g/m*3 9.72 C 6.4 km/h
1611 29-10-2019 14:10:00 10.3 C 7.47 g/m*3 9.34 C 8.1 km/h
1612 29-10-2019 14:15:00 10.3 C 7.57 g/m*3 10.3 C 1.6 km/h
1613 29-10-2019 14:20:00 10.3 C 7.57 g/m*3 9.72 C 6.4 km/h
1614 29-10-2019 14:25:00 10.4 C 7.42 g/m*3 8.9 C 11.3 km/h
1615 29-10-2019 14:30:00 10.6 C 7.52 g/m*3 10.6 C 4.8 km/h
1616 29-10-2019 14:35:00 10.8 C 7.41 g/m*3 9.38 C 11.3 km/h
1617 29-10-2019 14:40:00 11 C 7.41 g/m*3 9.4 C 12.9 km/h
1618 29-10-2019 14:45:00 11.1 C 7.45 g/m*3 11.1 C 4.8 km/h
1619 29-10-2019 14:50:00 10.9 C 7.16 g/m*3 10.41 C 6.4 km/h
1620 29-10-2019 14:55:00 10.8 C 7.41 g/m*3 10.8 C 4.8 km/h
1621 29-10-2019 15:00:00 10.7 C 7.07 g/m*3 10.7 C 4.8 km/h
1622 29-10-2019 15:05:00 10.5 C 7.18 g/m*3 9.57 C 8.1 km/h
1623 29-10-2019 15:10:00 10.3 C 7.28 g/m*3 10.3 C 1.6 km/h
1624 29-10-2019 15:15:00 10.1 C 7.28 g/m*3 10.1 C 3.2 km/h
1625 29-10-2019 15:20:00 9.9 C 7.47 g/m*3 9.9 C 0 km/h
Sensor: Nr:Datum:Temp:Abs-Feuchte:Windchill:Wind:
Aussen-T/F 1626 29-10-2019 15:25:00 9.7 C 7.38 g/m*3 9.7 C 0 km/h
1627 29-10-2019 15:30:00 9.4 C 7.42 g/m*3 9.4 C 1.6 km/h
1628 29-10-2019 15:35:00 9.2 C 7.41 g/m*3 9.2 C 1.6 km/h
1629 29-10-2019 15:40:00 9 C 7.41 g/m*3 9 C 0 km/h
1630 29-10-2019 15:45:00 8.8 C 7.4 g/m*3 8.8 C 0 km/h
1631 29-10-2019 15:50:00 8.7 C 7.35 g/m*3 8.7 C 0 km/h
1632 29-10-2019 15:55:00 8.6 C 7.39 g/m*3 8.6 C 0 km/h
1633 29-10-2019 16:00:00 8.6 C 7.48 g/m*3 8.6 C 0 km/h
1634 29-10-2019 16:05:00 8.6 C 7.56 g/m*3 8.6 C 0 km/h
1635 29-10-2019 16:10:00 8.5 C 7.51 g/m*3 8.5 C 1.6 km/h
1636 29-10-2019 16:15:00 8.5 C 7.51 g/m*3 8.5 C 1.6 km/h
1637 29-10-2019 16:20:00 8.4 C 7.38 g/m*3 8.4 C 0 km/h
1638 29-10-2019 16:25:00 8.3 C 7.42 g/m*3 8.3 C 1.6 km/h
1639 29-10-2019 16:30:00 8.2 C 7.37 g/m*3 8.2 C 0 km/h
1640 29-10-2019 16:35:00 8.1 C 7.41 g/m*3 8.1 C 0 km/h
1641 29-10-2019 16:40:00 8.1 C 7.41 g/m*3 8.1 C 0 km/h
1642 29-10-2019 16:45:00 8.1 C 7.41 g/m*3 8.1 C 0 km/h
1643 29-10-2019 16:50:00 8 C 7.36 g/m*3 8 C 0 km/h
1644 29-10-2019 16:55:00 7.9 C 7.31 g/m*3 7.9 C 0 km/h
1645 29-10-2019 17:00:00 7.7 C 7.22 g/m*3 7.7 C 1.6 km/h
1646 29-10-2019 17:05:00 7.5 C 7.12 g/m*3 7.5 C 1.6 km/h
1647 29-10-2019 17:10:00 7.3 C 7.03 g/m*3 7.3 C 1.6 km/h
1648 29-10-2019 17:15:00 7.2 C 6.99 g/m*3 7.2 C 1.6 km/h
1649 29-10-2019 17:20:00 7.1 C 6.94 g/m*3 7.1 C 1.6 km/h
1650 29-10-2019 17:25:00 6.9 C 6.85 g/m*3 6.9 C 1.6 km/h
Sensor: Nr:Datum:Temp:Abs-Feuchte:Windchill:Wind:
Aussen-T/F 1651 29-10-2019 17:30:00 6.8 C 6.88 g/m*3 6.8 C 1.6 km/h
1652 29-10-2019 17:35:00 6.7 C 6.84 g/m*3 6.7 C 3.2 km/h
1653 29-10-2019 17:40:00 6.6 C 6.72 g/m*3 6.6 C 3.2 km/h
1654 29-10-2019 17:45:00 6.6 C 6.79 g/m*3 6.6 C 3.2 km/h
1655 29-10-2019 17:50:00 6.5 C 6.75 g/m*3 6.5 C 1.6 km/h
1656 29-10-2019 17:55:00 6.4 C 6.71 g/m*3 6.4 C 0 km/h
1657 29-10-2019 18:00:00 6.3 C 6.66 g/m*3 6.3 C 3.2 km/h
1658 29-10-2019 18:05:00 6.2 C 6.62 g/m*3 6.2 C 1.6 km/h
1659 29-10-2019 18:10:00 6.2 C 6.69 g/m*3 6.2 C 1.6 km/h
1660 29-10-2019 18:15:00 6.2 C 6.69 g/m*3 6.2 C 1.6 km/h
1661 29-10-2019 18:20:00 6.1 C 6.65 g/m*3 6.1 C 0 km/h
1662 29-10-2019 18:25:00 6.1 C 6.65 g/m*3 6.1 C 0 km/h
1663 29-10-2019 18:30:00 5.9 C 6.56 g/m*3 5.9 C 0 km/h
1664 29-10-2019 18:35:00 5.9 C 6.56 g/m*3 5.9 C 0 km/h
1665 29-10-2019 18:40:00 5.8 C 6.52 g/m*3 5.8 C 0 km/h
1666 29-10-2019 18:45:00 5.7 C 6.48 g/m*3 5.7 C 0 km/h
1667 29-10-2019 18:50:00 5.6 C 6.43 g/m*3 5.6 C 0 km/h
1668 29-10-2019 18:55:00 5.6 C 6.5 g/m*3 5.6 C 0 km/h
1669 29-10-2019 19:00:00 5.4 C 6.42 g/m*3 5.4 C 0 km/h
1670 29-10-2019 19:05:00 5.3 C 6.38 g/m*3 5.3 C 0 km/h
1671 29-10-2019 19:10:00 5.3 C 6.38 g/m*3 5.3 C 0 km/h
1672 29-10-2019 19:15:00 5.2 C 6.33 g/m*3 5.2 C 0 km/h
1673 29-10-2019 19:20:00 5.1 C 6.29 g/m*3 5.1 C 0 km/h
1674 29-10-2019 19:25:00 5 C 6.25 g/m*3 5 C 0 km/h
1675 29-10-2019 19:30:00 4.9 C 6.21 g/m*3 4.9 C 0 km/h
Sensor: Nr:Datum:Temp:Abs-Feuchte:Windchill:Wind:
Aussen-T/F 1676 29-10-2019 19:35:00 4.8 C 6.24 g/m*3 4.8 C 0 km/h
1677 29-10-2019 19:40:00 4.7 C 6.19 g/m*3 4.7 C 0 km/h
1678 29-10-2019 19:45:00 4.7 C 6.19 g/m*3 4.7 C 0 km/h
1679 29-10-2019 19:50:00 4.6 C 6.15 g/m*3 4.6 C 0 km/h
1680 29-10-2019 19:55:00 4.6 C 6.22 g/m*3 4.6 C 0 km/h
1681 29-10-2019 20:00:00 4.6 C 6.22 g/m*3 4.6 C 0 km/h
1682 29-10-2019 20:05:00 4.6 C 6.22 g/m*3 4.6 C 0 km/h
1683 29-10-2019 20:10:00 4.5 C 6.18 g/m*3 4.5 C 0 km/h
1684 29-10-2019 20:15:00 4.4 C 6.14 g/m*3 4.4 C 0 km/h
1685 29-10-2019 20:20:00 4.4 C 6.14 g/m*3 4.4 C 0 km/h
1686 29-10-2019 20:25:00 4.4 C 6.14 g/m*3 4.4 C 0 km/h
1687 29-10-2019 20:30:00 4.4 C 6.14 g/m*3 4.4 C 0 km/h
1688 29-10-2019 20:35:00 4.4 C 6.14 g/m*3 4.4 C 0 km/h
1689 29-10-2019 20:40:00 4.4 C 6.14 g/m*3 4.4 C 0 km/h
1690 29-10-2019 20:45:00 4.4 C 6.14 g/m*3 4.4 C 0 km/h
1691 29-10-2019 20:50:00 4.3 C 6.1 g/m*3 4.3 C 0 km/h
1692 29-10-2019 20:55:00 4.3 C 6.1 g/m*3 4.3 C 0 km/h
1693 29-10-2019 21:00:00 4.1 C 6.02 g/m*3 4.1 C 0 km/h
1694 29-10-2019 21:05:00 4 C 5.98 g/m*3 4 C 0 km/h
1695 29-10-2019 21:10:00 3.9 C 5.94 g/m*3 3.9 C 0 km/h
1696 29-10-2019 21:15:00 3.8 C 5.9 g/m*3 3.8 C 0 km/h
1697 29-10-2019 21:20:00 3.7 C 5.86 g/m*3 3.7 C 0 km/h
1698 29-10-2019 21:25:00 3.7 C 5.86 g/m*3 3.7 C 0 km/h
1699 29-10-2019 21:30:00 3.6 C 5.82 g/m*3 3.6 C 0 km/h
1700 29-10-2019 21:35:00 3.5 C 5.78 g/m*3 3.5 C 0 km/h
Sensor: Nr:Datum:Temp:Abs-Feuchte:Windchill:Wind:
Aussen-T/F 1701 29-10-2019 21:40:00 3.4 C 5.74 g/m*3 3.4 C 0 km/h
1702 29-10-2019 21:45:00 3.3 C 5.7 g/m*3 3.3 C 0 km/h
1703 29-10-2019 21:50:00 3.3 C 5.76 g/m*3 3.3 C 0 km/h
1704 29-10-2019 21:55:00 3.3 C 5.76 g/m*3 3.3 C 0 km/h
1705 29-10-2019 22:00:00 3.2 C 5.72 g/m*3 3.2 C 0 km/h
1706 29-10-2019 22:05:00 3.2 C 5.72 g/m*3 3.2 C 0 km/h
1707 29-10-2019 22:10:00 3.2 C 5.72 g/m*3 3.2 C 0 km/h
1708 29-10-2019 22:15:00 3.1 C 5.69 g/m*3 3.1 C 0 km/h
1709 29-10-2019 22:20:00 3.1 C 5.69 g/m*3 3.1 C 0 km/h
1710 29-10-2019 22:25:00 3.1 C 5.69 g/m*3 3.1 C 0 km/h
1711 29-10-2019 22:30:00 3 C 5.65 g/m*3 3 C 0 km/h
1712 29-10-2019 22:35:00 2.9 C 5.61 g/m*3 2.9 C 0 km/h
1713 29-10-2019 22:40:00 2.8 C 5.57 g/m*3 2.8 C 0 km/h
1714 29-10-2019 22:45:00 2.8 C 5.57 g/m*3 2.8 C 0 km/h
1715 29-10-2019 22:50:00 2.8 C 5.57 g/m*3 2.8 C 0 km/h
1716 29-10-2019 22:55:00 2.7 C 5.54 g/m*3 2.7 C 0 km/h
1717 29-10-2019 23:00:00 2.8 C 5.57 g/m*3 2.8 C 0 km/h
1718 29-10-2019 23:05:00 2.8 C 5.63 g/m*3 2.8 C 0 km/h
1719 29-10-2019 23:10:00 2.8 C 5.63 g/m*3 2.8 C 0 km/h
1720 29-10-2019 23:15:00 2.9 C 5.67 g/m*3 2.9 C 0 km/h
1721 29-10-2019 23:20:00 3 C 5.71 g/m*3 3 C 0 km/h
1722 29-10-2019 23:25:00 2.9 C 5.67 g/m*3 2.9 C 0 km/h
1723 29-10-2019 23:30:00 2.8 C 5.63 g/m*3 2.8 C 0 km/h
1724 29-10-2019 23:35:00 2.7 C 5.54 g/m*3 2.7 C 0 km/h
1725 29-10-2019 23:40:00 2.7 C 5.59 g/m*3 2.7 C 0 km/h
Sensor: Nr:Datum:Temp:Abs-Feuchte:Windchill:Wind:
Aussen-T/F 1726 29-10-2019 23:45:00 2.7 C 5.59 g/m*3 2.7 C 0 km/h
1727 29-10-2019 23:50:00 2.6 C 5.56 g/m*3 2.6 C 0 km/h
1728 29-10-2019 23:55:00 2.6 C 5.56 g/m*3 2.6 C 0 km/h

Legende:
   Min
   Max


Maximal/Minimal-Werte vom 24.10.2019 - 29.10.2019

Sensor Min Max Avg
Temp
(Aussen-T/F)
2.6 °C
29-10-2019  23:50:00
18.9 °C
24-10-2019  15:40:00
10.62 °C
Abs-Feuchte
(Aussen-T/F)
5.54 g/m*3
29-10-2019  22:55:00
13.69 g/m*3
24-10-2019  15:30:00
9.13 g/m*3
Windchill
(Aussen-T/F)
2.6 C
29-10-2019  23:50:00
18.9 C
24-10-2019  15:40:00
10.6 C

Die Daten stammen von einer Davis Vantage Pro 2 Wetter-Station und werden unter Linux mit der Software wview2wettercgi und aufbereitet. Alle Angaben erfolgen ohne Gewähr für ihre Vollständigkeit oder Richtigkeit.
Kontakt: Rainer Krienke krienke@uni-koblenz.de . Meine Webseiten an der Uni Koblenz oder privat.
Version: $Revision: 0.78 $